EW8144 Weather Reports


Display with metric or nautical units.
time (UTC)temp
F
wind
direction
speed
MPH
gust
MPH
rain 1hr
in
rain 24hr
in
rain mn
in
humidity
%
barometer
mb
20260507174609 61 243 7.0 10.0 0.00 0.00 0.00 64 1013.9
20260507174546 60 233 6.0 10.0 0.00 0.00 0.00 64 1013.3
20260507174459 61 210 7.0 10.0 0.00 0.00 0.00 64 1013.9
20260507174137 60 247 6.0 10.0 0.00 0.00 0.00 64 1013.2
20260507174052 61 243 8.0 10.0 0.00 0.00 0.00 64 1013.8
20260507173958 61 230 8.0 11.0 0.00 0.00 0.00 64 1013.8
20260507173841 61 251 7.0 10.0 0.00 0.00 0.00 64 1013.8
20260507173744 61 222 7.0 10.0 0.00 0.00 0.00 64 1013.8
20260507173637 61 261 7.0 12.0 0.00 0.00 0.00 64 1013.8
20260507173536 61 245 5.0 12.0 0.00 0.00 0.00 64 1013.8
20260507173439 61 251 5.0 12.0 0.00 0.00 0.00 64 1013.7
20260507173346 61 229 6.0 12.0 0.00 0.00 0.00 64 1013.7
20260507173239 61 227 8.0 12.0 0.00 0.00 0.00 64 1013.7
20260507173142 61 244 8.0 12.0 0.00 0.00 0.00 64 1013.6
20260507173043 61 256 7.0 12.0 0.00 0.00 0.00 64 1013.6
20260507172946 61 228 8.0 12.0 0.00 0.00 0.00 64 1013.6
20260507172816 61 268 7.0 12.0 0.00 0.00 0.00 64 1013.6
20260507172721 61 217 6.0 12.0 0.00 0.00 0.00 64 1013.6
20260507172626 61 230 7.0 12.0 0.00 0.00 0.00 64 1013.6
20260507172523 61 240 9.0 12.0 0.00 0.00 0.00 63 1013.6
20260507172416 61 210 8.0 12.0 0.00 0.00 0.00 63 1013.7
20260507172320 61 226 7.0 14.0 0.00 0.00 0.00 63 1013.6
20260507172222 61 246 6.0 14.0 0.00 0.00 0.00 64 1013.6
20260507172123 61 243 6.0 14.0 0.00 0.00 0.00 64 1013.5
20260507172055 61 270 5.0 14.0 0.00 0.00 0.00 64 1012.9
20260507172017 61 240 6.0 15.0 0.00 0.00 0.00 64 1013.6
20260507171859 61 239 8.0 15.0 0.00 0.00 0.00 64 1013.6
20260507171802 61 259 8.0 15.0 0.00 0.00 0.00 63 1013.6
20260507171704 62 243 10.0 15.0 0.00 0.00 0.00 63 1013.6
20260507171637 61 236 9.0 15.0 0.00 0.00 0.00 63 1012.9
20260507171554 62 237 10.0 15.0 0.00 0.00 0.00 63 1013.5
20260507171457 62 247 9.0 15.0 0.00 0.00 0.00 63 1013.6
20260507171402 62 247 10.0 15.0 0.00 0.00 0.00 63 1013.6
20260507171305 62 228 10.0 15.0 0.00 0.00 0.00 63 1013.5
20260507171209 62 248 10.0 15.0 0.00 0.00 0.00 63 1013.5
20260507171144 61 245 9.0 15.0 0.00 0.00 0.00 63 1012.8
20260507171057 62 236 9.0 14.0 0.00 0.00 0.00 63 1013.5
20260507171001 62 230 8.0 14.0 0.00 0.00 0.00 63 1013.5
20260507170901 62 253 8.0 14.0 0.00 0.00 0.00 63 1013.4
20260507170754 62 226 7.0 13.0 0.00 0.00 0.00 62 1013.4
20260507170701 62 235 9.0 13.0 0.00 0.00 0.00 62 1013.4
20260507170540 62 245 8.0 12.0 0.00 0.00 0.00 62 1013.4
20260507170422 62 213 7.0 15.0 0.00 0.00 0.00 62 1013.4
20260507170254 62 242 8.0 15.0 0.00 0.00 0.00 62 1013.3
20260507170155 62 223 8.0 15.0 0.00 0.00 0.00 62 1013.4
20260507170032 62 229 10.0 15.0 0.00 0.00 0.00 61 1013.4
20260507165939 62 246 10.0 15.0 0.00 0.00 0.00 62 1013.3
20260507165832 62 255 10.0 16.0 0.00 0.00 0.00 61 1013.3
20260507165735 62 243 12.0 17.0 0.00 0.00 0.00 61 1013.3
20260507165637 62 244 12.0 17.0 0.00 0.00 0.00 61 1013.4
20260507165538 62 228 11.0 17.0 0.00 0.00 0.00 61 1013.4
20260507165514 62 230 9.0 17.0 0.00 0.00 0.00 61 1012.7
20260507165432 62 232 9.0 17.0 0.00 0.00 0.00 61 1013.4
20260507165335 62 245 10.0 17.0 0.00 0.00 0.00 61 1013.3
20260507165046 62 242 13.0 17.0 0.00 0.00 0.00 61 1013.4
20260507165024 62 239 13.0 17.0 0.00 0.00 0.00 61 1012.7
20260507164940 62 228 13.0 17.0 0.00 0.00 0.00 62 1013.3
20260507164842 62 236 12.0 17.0 0.00 0.00 0.00 62 1013.3
20260507164746 62 271 13.0 17.0 0.00 0.00 0.00 61 1013.1
20260507164616 62 240 11.0 15.0 0.00 0.00 0.00 62 1013.2
20260507164517 62 228 9.0 16.0 0.00 0.00 0.00 62 1013.1
20260507164421 62 245 8.0 17.0 0.00 0.00 0.00 62 1013.1
20260507164324 62 254 8.0 17.0 0.00 0.00 0.00 62 1013.1
20260507164224 62 239 9.0 17.0 0.00 0.00 0.00 62 1013.1
20260507164117 62 249 10.0 17.0 0.00 0.00 0.00 62 1013.1
20260507164017 62 236 9.0 17.0 0.00 0.00 0.00 62 1013.1
20260507163920 62 245 10.0 17.0 0.00 0.00 0.00 62 1013.1
20260507163818 62 221 11.0 17.0 0.00 0.00 0.00 62 1013.1
20260507163720 62 233 11.0 17.0 0.00 0.00 0.00 62 1013.1
20260507163622 62 249 11.0 17.0 0.00 0.00 0.00 62 1013.2
20260507163523 62 232 12.0 17.0 0.00 0.00 0.00 62 1013.2
20260507163416 62 254 10.0 16.0 0.00 0.00 0.00 62 1013.1
20260507163318 62 257 11.0 16.0 0.00 0.00 0.00 62 1013.1
20260507163200 62 240 11.0 16.0 0.00 0.00 0.00 61 1013.1
20260507163043 63 247 12.0 16.0 0.00 0.00 0.00 62 1013.1
20260507163016 62 256 11.0 16.0 0.00 0.00 0.00 62 1012.5
20260507162935 63 245 11.0 16.0 0.00 0.00 0.00 62 1013.1
20260507162816 63 249 11.0 16.0 0.00 0.00 0.00 61 1013.2
20260507162720 63 234 12.0 16.0 0.00 0.00 0.00 61 1013.2
20260507162559 63 229 11.0 15.0 0.00 0.00 0.00 61 1013.1
20260507162518 62 221 11.0 15.0 0.00 0.00 0.00 61 1012.5
20260507162411 63 235 11.0 15.0 0.00 0.00 0.00 60 1013.1
20260507162317 63 234 10.0 15.0 0.00 0.00 0.00 60 1013.2
20260507162157 63 246 9.0 15.0 0.00 0.00 0.00 60 1013.1
20260507162057 63 240 10.0 15.0 0.00 0.00 0.00 60 1013.1
20260507162002 63 195 9.0 15.0 0.00 0.00 0.00 60 1013.1
20260507161833 63 239 8.0 15.0 0.00 0.00 0.00 60 1013.1
20260507161735 63 249 9.0 16.0 0.00 0.00 0.00 60 1013.2
20260507161645 63 193 8.0 16.0 0.00 0.00 0.00 60 1012.5
20260507161612 63 241 10.0 16.0 0.00 0.00 0.00 60 1013.2
20260507161513 63 234 10.0 16.0 0.00 0.00 0.00 60 1013.2
20260507161416 63 250 9.0 16.0 0.00 0.00 0.00 60 1013.2
20260507161319 63 226 9.0 16.0 0.00 0.00 0.00 60 1013.1
20260507161204 64 237 10.0 18.0 0.00 0.00 0.00 59 1013.1
20260507161107 64 232 11.0 18.0 0.00 0.00 0.00 59 1013.1
20260507161006 64 238 12.0 18.0 0.00 0.00 0.00 59 1013.1
20260507160913 64 243 11.0 18.0 0.00 0.00 0.00 59 1013.1
20260507160744 64 250 11.0 18.0 0.00 0.00 0.00 58 1013.1
20260507160648 64 245 11.0 18.0 0.00 0.00 0.00 57 1013.1
20260507160527 64 237 11.0 18.0 0.00 0.00 0.00 57 1013.1
20260507160431 64 240 13.0 18.0 0.00 0.00 0.00 56 1013.0
20260507160323 64 245 13.0 18.0 0.00 0.00 0.00 56 1013.1
20260507160206 64 250 13.0 16.0 0.00 0.00 0.00 56 1013.1
20260507160106 64 252 12.0 16.0 0.00 0.00 0.00 56 1013.1
20260507155948 64 253 11.0 16.0 0.00 0.00 0.00 56 1013.0
20260507155820 64 249 12.0 16.0 0.00 0.00 0.00 56 1013.0
20260507155722 64 251 13.0 16.0 0.00 0.00 0.00 56 1013.0
20260507155622 64 273 11.0 15.0 0.00 0.00 0.00 56 1013.0
20260507155503 64 251 9.0 14.0 0.00 0.00 0.00 56 1013.0
20260507155400 64 243 10.0 14.0 0.00 0.00 0.00 56 1012.9
20260507155241 64 279 10.0 16.0 0.00 0.00 0.00 56 1012.9
20260507155144 64 261 10.0 17.0 0.00 0.00 0.00 56 1012.9
20260507155045 64 264 10.0 17.0 0.00 0.00 0.00 55 1012.9
20260507155018 63 249 10.0 17.0 0.00 0.00 0.00 55 1012.3
20260507154938 64 255 10.0 18.0 0.00 0.00 0.00 56 1012.9
20260507154842 64 251 10.0 18.0 0.00 0.00 0.00 56 1013.0
20260507154749 64 259 11.0 18.0 0.00 0.00 0.00 55 1013.0
20260507154651 64 255 12.0 18.0 0.00 0.00 0.00 55 1013.0
20260507154619 64 251 12.0 18.0 0.00 0.00 0.00 55 1012.3
20260507154521 64 269 13.0 18.0 0.00 0.00 0.00 54 1013.0
20260507154254 64 251 12.0 18.0 0.00 0.00 0.00 54 1013.0
20260507154155 64 256 12.0 18.0 0.00 0.00 0.00 54 1013.0
20260507154131 64 249 12.0 18.0 0.00 0.00 0.00 54 1012.4
20260507154046 64 261 13.0 18.0 0.00 0.00 0.00 54 1013.0
20260507153934 64 258 13.0 18.0 0.00 0.00 0.00 53 1013.0
20260507153839 64 251 13.0 18.0 0.00 0.00 0.00 53 1013.0
20260507153712 64 262 13.0 18.0 0.00 0.00 0.00 53 1013.0
20260507153615 64 276 13.0 18.0 0.00 0.00 0.00 53 1013.0
20260507153516 64 253 14.0 18.0 0.00 0.00 0.00 53 1013.0
20260507153410 64 223 13.0 18.0 0.00 0.00 0.00 53 1013.0
20260507153316 64 257 12.0 18.0 0.00 0.00 0.00 53 1013.0
20260507153218 64 240 13.0 19.0 0.00 0.00 0.00 53 1013.0
20260507153121 64 230 14.0 19.0 0.00 0.00 0.00 52 1013.0
20260507153054 64 261 13.0 19.0 0.00 0.00 0.00 53 1012.4
20260507153013 65 256 13.0 19.0 0.00 0.00 0.00 53 1013.0
20260507152916 65 250 12.0 19.0 0.00 0.00 0.00 53 1013.0
20260507152820 65 255 13.0 19.0 0.00 0.00 0.00 52 1013.0
20260507152723 65 251 13.0 19.0 0.00 0.00 0.00 52 1012.9
20260507152656 64 256 13.0 19.0 0.00 0.00 0.00 52 1012.3
20260507152619 65 255 13.0 19.0 0.00 0.00 0.00 52 1013.0
20260507152520 65 252 13.0 19.0 0.00 0.00 0.00 52 1012.9
20260507152401 65 265 13.0 19.0 0.00 0.00 0.00 52 1012.9
20260507152306 65 258 13.0 18.0 0.00 0.00 0.00 52 1012.9
20260507152153 65 251 13.0 18.0 0.00 0.00 0.00 52 1012.9
20260507152053 65 268 13.0 18.0 0.00 0.00 0.00 52 1012.9
20260507151959 65 270 12.0 18.0 0.00 0.00 0.00 52 1012.9
20260507151901 65 245 14.0 18.0 0.00 0.00 0.00 52 1012.8
20260507151734 65 292 14.0 18.0 0.00 0.00 0.00 52 1012.9
20260507151637 65 252 14.0 21.0 0.00 0.00 0.00 52 1012.9
20260507151539 65 267 14.0 21.0 0.00 0.00 0.00 52 1012.9
20260507151442 65 258 14.0 21.0 0.00 0.00 0.00 52 1012.8
20260507151335 65 263 14.0 21.0 0.00 0.00 0.00 52 1012.8
20260507151241 65 277 14.0 21.0 0.00 0.00 0.00 52 1012.8
20260507151144 65 273 14.0 21.0 0.00 0.00 0.00 52 1012.9
20260507151045 65 257 15.0 21.0 0.00 0.00 0.00 51 1012.9
20260507151021 65 264 14.0 21.0 0.00 0.00 0.00 51 1012.2
20260507150807 65 264 16.0 21.0 0.00 0.00 0.00 51 1012.8
20260507150712 65 275 15.0 19.0 0.00 0.00 0.00 51 1012.7
20260507150624 65 252 13.0 19.0 0.00 0.00 0.00 51 1012.0
20260507150542 66 263 12.0 17.0 0.00 0.00 0.00 51 1012.8
20260507150428 66 251 12.0 17.0 0.00 0.00 0.00 51 1012.7
20260507150330 66 270 13.0 17.0 0.00 0.00 0.00 51 1012.6
20260507150231 66 247 13.0 17.0 0.00 0.00 0.00 50 1012.7
20260507150125 66 267 13.0 17.0 0.00 0.00 0.00 51 1012.7
20260507150025 66 272 13.0 18.0 0.00 0.00 0.00 51 1012.7
20260507145927 66 277 13.0 18.0 0.00 0.00 0.00 50 1012.7
20260507145814 66 263 12.0 18.0 0.00 0.00 0.00 50 1012.6
20260507145645 66 254 12.0 18.0 0.00 0.00 0.00 50 1012.6
20260507145547 66 267 12.0 18.0 0.00 0.00 0.00 50 1012.6
20260507145450 66 252 13.0 18.0 0.00 0.00 0.00 50 1012.5
20260507145331 66 274 13.0 18.0 0.00 0.00 0.00 50 1012.6
20260507145200 66 251 14.0 18.0 0.00 0.00 0.00 49 1012.5
20260507145103 66 270 14.0 18.0 0.00 0.00 0.00 49 1012.5
20260507145008 66 278 13.0 19.0 0.00 0.00 0.00 49 1012.6
20260507144911 66 281 14.0 19.0 0.00 0.00 0.00 49 1012.5
20260507144804 66 267 14.0 19.0 0.00 0.00 0.00 49 1012.6
20260507144705 66 243 13.0 19.0 0.00 0.00 0.00 50 1012.6
20260507144545 66 270 13.0 19.0 0.00 0.00 0.00 49 1012.6
20260507144447 67 265 13.0 19.0 0.00 0.00 0.00 49 1012.7
20260507144345 67 270 14.0 19.0 0.00 0.00 0.00 49 1012.6
20260507144226 67 269 16.0 19.0 0.00 0.00 0.00 48 1012.6
20260507144129 67 268 15.0 20.0 0.00 0.00 0.00 49 1012.6
20260507144030 67 270 13.0 20.0 0.00 0.00 0.00 49 1012.6
20260507144004 67 269 12.0 20.0 0.00 0.00 0.00 49 1011.9
20260507143922 67 261 13.0 23.0 0.00 0.00 0.00 48 1012.5
20260507143804 67 296 15.0 23.0 0.00 0.00 0.00 48 1012.5
20260507143705 68 277 15.0 23.0 0.00 0.00 0.00 48 1012.6
20260507143611 68 261 15.0 23.0 0.00 0.00 0.00 47 1012.5
20260507143545 67 272 15.0 23.0 0.00 0.00 0.00 47 1011.8
20260507143502 68 247 16.0 23.0 0.00 0.00 0.00 47 1012.6
20260507143404 68 263 15.0 23.0 0.00 0.00 0.00 46 1012.5
20260507143244 69 273 15.0 23.0 0.00 0.00 0.00 46 1012.4
20260507143150 68 259 15.0 23.0 0.00 0.00 0.00 46 1011.7
20260507143116 69 278 16.0 23.0 0.00 0.00 0.00 46 1012.5
20260507143017 69 253 17.0 23.0 0.00 0.00 0.00 46 1012.4
20260507142902 70 264 17.0 23.0 0.00 0.00 0.00 46 1012.4
20260507142804 70 253 16.0 23.0 0.00 0.00 0.00 47 1012.3
20260507142637 69 268 16.0 23.0 0.00 0.00 0.00 47 1012.3
20260507142539 69 259 16.0 23.0 0.00 0.00 0.00 47 1012.3
20260507142443 69 265 17.0 21.0 0.00 0.00 0.00 46 1012.3
20260507142325 69 265 17.0 21.0 0.00 0.00 0.00 46 1012.3
20260507142217 69 251 16.0 21.0 0.00 0.00 0.00 46 1012.2
20260507142124 69 238 17.0 21.0 0.00 0.00 0.00 45 1012.2
20260507142024 70 266 16.0 21.0 0.00 0.00 0.00 45 1012.3
20260507141925 70 280 15.0 21.0 0.00 0.00 0.00 45 1012.2
20260507141818 70 266 16.0 21.0 0.00 0.00 0.00 45 1012.2
20260507141701 70 269 15.0 20.0 0.00 0.00 0.00 46 1012.2
20260507141559 70 280 13.0 20.0 0.00 0.00 0.00 47 1012.2
20260507141506 69 230 13.0 20.0 0.00 0.00 0.00 47 1012.3
20260507141339 69 240 15.0 20.0 0.00 0.00 0.00 46 1012.2
20260507141240 69 262 14.0 20.0 0.00 0.00 0.00 47 1012.3
20260507141142 69 232 12.0 16.0 0.00 0.00 0.00 46 1012.2
20260507141044 69 255 10.0 16.0 0.00 0.00 0.00 46 1012.3
20260507141018 69 276 9.0 16.0 0.00 0.00 0.00 46 1011.5
20260507140939 69 274 8.0 16.0 0.00 0.00 0.00 47 1012.3
20260507140820 69 265 8.0 16.0 0.00 0.00 0.00 46 1012.3
20260507140724 69 247 9.0 16.0 0.00 0.00 0.00 45 1012.3
20260507140606 69 266 10.0 16.0 0.00 0.00 0.00 45 1012.2
20260507140537 69 273 9.0 16.0 0.00 0.00 0.00 45 1011.5
20260507140458 70 255 10.0 16.0 0.00 0.00 0.00 45 1012.2
20260507140400 70 313 11.0 16.0 0.00 0.00 0.00 45 1012.2
20260507140303 70 226 9.0 16.0 0.00 0.00 0.00 46 1012.2
20260507140144 70 268 9.0 16.0 0.00 0.00 0.00 44 1012.2
20260507140054 70 264 9.0 16.0 0.00 0.00 0.00 44 1011.4
20260507140017 70 292 10.0 16.0 0.00 0.00 0.00 44 1012.2
20260507135920 70 266 11.0 16.0 0.00 0.00 0.00 45 1012.2
20260507135802 70 251 10.0 16.0 0.00 0.00 0.00 46 1012.2
20260507135643 70 272 11.0 16.0 0.00 0.00 0.00 45 1012.2
20260507135555 70 291 11.0 16.0 0.00 0.00 0.00 45 1011.3
20260507135515 70 278 13.0 16.0 0.00 0.00 0.00 44 1012.1
20260507135418 70 274 12.0 16.0 0.00 0.00 0.00 45 1012.2
20260507135321 70 260 11.0 17.0 0.00 0.00 0.00 43 1012.1
20260507135226 70 271 11.0 17.0 0.00 0.00 0.00 44 1012.2
20260507135157 70 270 10.0 17.0 0.00 0.00 0.00 44 1011.4
20260507135121 70 280 11.0 17.0 0.00 0.00 0.00 45 1012.2
20260507135021 70 275 10.0 17.0 0.00 0.00 0.00 45 1012.1
20260507134922 70 288 10.0 17.0 0.00 0.00 0.00 45 1012.2
20260507134803 70 270 9.0 17.0 0.00 0.00 0.00 46 1012.1
20260507134657 70 257 11.0 17.0 0.00 0.00 0.00 46 1012.1
20260507134600 70 279 12.0 17.0 0.00 0.00 0.00 49 1012.1
20260507134324 69 253 10.0 15.0 0.00 0.00 0.00 50 1012.1
20260507134225 69 255 10.0 16.0 0.00 0.00 0.00 49 1012.1
20260507134127 68 272 11.0 19.0 0.00 0.00 0.00 49 1012.1
20260507134007 68 270 11.0 19.0 0.00 0.00 0.00 49 1012.2
20260507133838 68 231 10.0 19.0 0.00 0.00 0.00 49 1012.2
20260507133744 68 263 11.0 19.0 0.00 0.00 0.00 47 1012.1
20260507133648 68 267 13.0 19.0 0.00 0.00 0.00 47 1012.1
20260507133549 68 266 13.0 19.0 0.00 0.00 0.00 47 1012.2
20260507133520 67 269 12.0 19.0 0.00 0.00 0.00 47 1011.4
20260507133443 68 270 14.0 19.0 0.00 0.00 0.00 47 1012.3
20260507133324 68 268 15.0 19.0 0.00 0.00 0.00 47 1012.2
20260507133224 68 259 16.0 19.0 0.00 0.00 0.00 48 1012.2
20260507133149 68 265 16.0 19.0 0.00 0.00 0.00 47 1011.4
20260507133127 68 265 16.0 19.0 0.00 0.00 0.00 47 1012.2
20260507133024 68 272 14.0 19.0 0.00 0.00 0.00 48 1012.2
20260507132926 68 259 12.0 19.0 0.00 0.00 0.00 48 1012.2
20260507132829 68 263 11.0 18.0 0.00 0.00 0.00 48 1012.2
20260507132730 68 270 12.0 18.0 0.00 0.00 0.00 47 1012.3
20260507132625 68 280 12.0 18.0 0.00 0.00 0.00 47 1012.2
20260507132525 68 254 12.0 18.0 0.00 0.00 0.00 47 1012.2
20260507132432 69 261 10.0 19.0 0.00 0.00 0.00 47 1012.3
20260507132252 69 270 9.0 20.0 0.00 0.00 0.00 48 1012.3
20260507132145 69 263 9.0 20.0 0.00 0.00 0.00 48 1012.3
20260507132046 69 261 11.0 20.0 0.00 0.00 0.00 48 1012.3
20260507131950 69 259 14.0 20.0 0.00 0.00 0.00 47 1012.3
20260507131844 69 273 15.0 20.0 0.00 0.00 0.00 47 1012.4
20260507131726 69 251 16.0 20.0 0.00 0.00 0.00 47 1012.4
20260507131610 69 265 16.0 20.0 0.00 0.00 0.00 46 1012.3
20260507131450 70 288 14.0 20.0 0.00 0.00 0.00 47 1012.3
20260507131333 70 285 14.0 20.0 0.00 0.00 0.00 47 1012.4
20260507131226 70 274 14.0 20.0 0.00 0.00 0.00 46 1012.3
20260507131107 70 244 8.0 20.0 0.00 0.00 0.00 45 1012.4
20260507130947 70 256 9.0 20.0 0.00 0.00 0.00 46 1012.4
20260507130852 70 242 13.0 20.0 0.00 0.00 0.00 45 1012.4
20260507130724 70 251 14.0 20.0 0.00 0.00 0.00 45 1012.4
20260507130627 71 245 13.0 20.0 0.00 0.00 0.00 45 1012.4
20260507130527 71 269 13.0 20.0 0.00 0.00 0.00 45 1012.4
20260507130421 71 279 11.0 18.0 0.00 0.00 0.00 46 1012.4
20260507130324 71 245 9.0 21.0 0.00 0.00 0.00 44 1012.4
20260507130225 71 263 10.0 21.0 0.00 0.00 0.00 44 1012.4
20260507130131 71 264 12.0 21.0 0.00 0.00 0.00 45 1012.4
20260507130107 70 277 13.0 21.0 0.00 0.00 0.00 45 1011.6
20260507130022 71 268 15.0 21.0 0.00 0.00 0.00 45 1012.4
20260507125923 71 257 16.0 21.0 0.00 0.00 0.00 45 1012.5
20260507125827 71 258 16.0 21.0 0.00 0.00 0.00 45 1012.5
20260507125728 71 269 14.0 21.0 0.00 0.00 0.00 46 1012.4
20260507125623 71 236 15.0 21.0 0.00 0.00 0.00 46 1012.4
20260507125359 71 261 12.0 21.0 0.00 0.00 0.00 47 1012.4
20260507125301 71 265 12.0 21.0 0.00 0.00 0.00 45 1012.4
20260507125151 71 271 13.0 21.0 0.00 0.00 0.00 45 1012.4
20260507125050 71 279 12.0 21.0 0.00 0.00 0.00 46 1012.4
20260507124953 71 248 12.0 21.0 0.00 0.00 0.00 46 1012.3
20260507124856 71 249 13.0 21.0 0.00 0.00 0.00 46 1012.4
20260507124754 71 265 13.0 21.0 0.00 0.00 0.00 46 1012.4
20260507124657 70 258 13.0 21.0 0.00 0.00 0.00 45 1012.3
20260507124558 70 226 12.0 21.0 0.00 0.00 0.00 46 1012.4
20260507124500 70 244 11.0 21.0 0.00 0.00 0.00 46 1012.4
20260507124355 71 265 8.0 19.0 0.00 0.00 0.00 45 1012.4
20260507124236 71 272 8.0 20.0 0.00 0.00 0.00 45 1012.4
20260507124140 71 243 10.0 20.0 0.00 0.00 0.00 45 1012.4
20260507124024 71 255 13.0 20.0 0.00 0.00 0.00 45 1012.4
20260507123917 71 265 11.0 20.0 0.00 0.00 0.00 46 1012.4
20260507123819 71 272 11.0 20.0 0.00 0.00 0.00 46 1012.4
20260507123722 71 246 13.0 20.0 0.00 0.00 0.00 45 1012.4
20260507123623 71 245 14.0 20.0 0.00 0.00 0.00 46 1012.4
20260507123555 70 221 14.0 20.0 0.00 0.00 0.00 46 1011.7
20260507123513 71 229 14.0 20.0 0.00 0.00 0.00 47 1012.4
20260507123359 70 242 11.0 16.0 0.00 0.00 0.00 48 1012.4
20260507123240 70 246 10.0 16.0 0.00 0.00 0.00 49 1012.4
20260507123143 70 262 11.0 16.0 0.00 0.00 0.00 47 1012.4
20260507123116 69 224 10.0 16.0 0.00 0.00 0.00 47 1011.6
20260507123036 70 271 10.0 16.0 0.00 0.00 0.00 47 1012.4
20260507122938 70 272 8.0 13.0 0.00 0.00 0.00 50 1012.4
20260507122821 69 312 8.0 15.0 0.00 0.00 0.00 49 1012.4
20260507122638 69 265 9.0 15.0 0.00 0.00 0.00 49 1012.4
20260507122539 69 290 9.0 15.0 0.00 0.00 0.00 48 1012.4
20260507122442 69 301 9.0 15.0 0.00 0.00 0.00 47 1012.4
20260507122335 69 295 9.0 15.0 0.00 0.00 0.00 49 1012.5
20260507122236 69 265 9.0 15.0 0.00 0.00 0.00 48 1012.4
20260507122137 69 263 8.0 16.0 0.00 0.00 0.00 48 1012.4
20260507122039 69 290 9.0 18.0 0.00 0.00 0.00 48 1012.5
20260507122014 68 293 10.0 18.0 0.00 0.00 0.00 48 1011.7
20260507121936 69 227 11.0 18.0 0.00 0.00 0.00 48 1012.5
20260507121839 69 260 9.0 18.0 0.00 0.00 0.00 48 1012.5
20260507121721 69 285 7.0 18.0 0.00 0.00 0.00 47 1012.5
20260507121625 69 285 8.0 18.0 0.00 0.00 0.00 47 1012.6
20260507121534 68 306 9.0 18.0 0.00 0.00 0.00 47 1011.7
20260507121454 69 313 10.0 18.0 0.00 0.00 0.00 47 1012.5
20260507121357 69 292 12.0 18.0 0.00 0.00 0.00 47 1012.5
20260507121302 69 301 12.0 19.0 0.00 0.00 0.00 46 1012.5
20260507121204 69 271 12.0 19.0 0.00 0.00 0.00 48 1012.5
20260507121133 69 266 9.0 19.0 0.00 0.00 0.00 48 1011.8
20260507121055 69 268 8.0 20.0 0.00 0.00 0.00 49 1012.5
20260507120958 69 269 8.0 20.0 0.00 0.00 0.00 48 1012.5
20260507120900 69 236 11.0 20.0 0.00 0.00 0.00 48 1012.5
20260507120734 69 239 14.0 20.0 0.00 0.00 0.00 48 1012.7
20260507120640 69 271 16.0 20.0 0.00 0.00 0.00 47 1012.6
20260507120540 69 287 16.0 20.0 0.00 0.00 0.00 48 1012.5
20260507120444 69 266 17.0 20.0 0.00 0.00 0.00 48 1012.6
20260507120336 69 219 15.0 23.0 0.00 0.00 0.00 48 1012.5
20260507120237 69 244 12.0 23.0 0.00 0.00 0.00 48 1012.6
20260507120138 69 286 10.0 23.0 0.00 0.00 0.00 49 1012.6
20260507120040 69 267 12.0 23.0 0.00 0.00 0.00 48 1012.6
20260507120018 68 265 12.0 23.0 0.00 0.00 0.00 48 1011.9
20260507115936 69 296 13.0 23.0 0.00 0.00 0.00 48 1012.7
20260507115838 69 255 14.0 23.0 0.00 0.00 0.00 48 1012.7
20260507115738 69 250 15.0 23.0 0.00 0.00 0.00 48 1012.6
20260507115621 68 265 18.0 23.0 0.00 0.00 0.00 48 1012.7
20260507115553 68 261 18.0 23.0 0.00 0.00 0.00 48 1011.8
20260507115512 69 274 18.0 23.0 0.00 0.00 0.00 47 1012.6
20260507115415 69 282 16.0 21.0 0.00 0.00 0.00 48 1012.6
20260507115322 69 265 13.0 21.0 0.00 0.00 0.00 47 1012.6
20260507115224 69 268 13.0 21.0 0.00 0.00 0.00 47 1012.6
20260507115157 68 276 13.0 21.0 0.00 0.00 0.00 47 1011.8
20260507115114 69 271 12.0 21.0 0.00 0.00 0.00 48 1012.5
20260507114956 69 304 9.0 21.0 0.00 0.00 0.00 47 1012.6
20260507114858 69 252 11.0 21.0 0.00 0.00 0.00 47 1012.6
20260507114732 69 273 15.0 21.0 0.00 0.00 0.00 47 1012.7
20260507114639 69 260 14.0 21.0 0.00 0.00 0.00 47 1012.7
20260507114401 69 277 13.0 21.0 0.00 0.00 0.00 47 1012.7
20260507114304 69 260 15.0 21.0 0.00 0.00 0.00 47 1012.7
20260507114205 69 253 15.0 21.0 0.00 0.00 0.00 47 1012.8
20260507114106 69 246 16.0 21.0 0.00 0.00 0.00 47 1012.7
20260507114038 68 255 17.0 21.0 0.00 0.00 0.00 48 1012.0
20260507113956 69 262 15.0 21.0 0.00 0.00 0.00 49 1012.8
20260507113841 69 281 12.0 20.0 0.00 0.00 0.00 49 1012.6
20260507113722 69 268 12.0 20.0 0.00 0.00 0.00 48 1012.7
20260507113626 69 285 14.0 20.0 0.00 0.00 0.00 47 1012.7
20260507113556 68 268 13.0 20.0 0.00 0.00 0.00 47 1011.9
20260507113517 69 269 14.0 20.0 0.00 0.00 0.00 49 1012.7
20260507113420 69 273 11.0 20.0 0.00 0.00 0.00 48 1012.7
20260507113322 69 276 13.0 20.0 0.00 0.00 0.00 48 1012.7
20260507113152 69 255 13.0 20.0 0.00 0.00 0.00 48 1012.7
20260507113055 69 267 13.0 20.0 0.00 0.00 0.00 48 1012.7
20260507112937 69 270 13.0 20.0 0.00 0.00 0.00 48 1012.7
20260507112821 69 239 14.0 20.0 0.00 0.00 0.00 48 1012.7
20260507112651 69 257 15.0 21.0 0.00 0.00 0.00 47 1012.7
20260507112552 69 257 16.0 21.0 0.00 0.00 0.00 48 1012.7
20260507112433 69 249 12.0 21.0 0.00 0.00 0.00 49 1012.7
20260507112331 69 230 9.0 21.0 0.00 0.00 0.00 49 1012.6
20260507112211 68 240 11.0 21.0 0.00 0.00 0.00 49 1012.7
20260507112110 68 251 15.0 21.0 0.00 0.00 0.00 48 1012.8
20260507111953 68 243 15.0 21.0 0.00 0.00 0.00 48 1012.8
20260507111846 68 253 15.0 21.0 0.00 0.00 0.00 48 1012.8
20260507111749 68 264 16.0 21.0 0.00 0.00 0.00 49 1012.8
20260507111657 68 269 17.0 21.0 0.00 0.00 0.00 49 1012.8
20260507111536 68 261 17.0 21.0 0.00 0.00 0.00 49 1012.9
20260507111510 67 266 16.0 20.0 0.00 0.00 0.00 49 1012.1
20260507111429 67 268 15.0 19.0 0.00 0.00 0.00 50 1012.7
20260507111331 67 276 15.0 20.0 0.00 0.00 0.00 49 1012.7
20260507111108 67 269 9.0 20.0 0.00 0.00 0.00 50 1012.0
20260507111033 67 255 8.0 20.0 0.00 0.00 0.00 49 1012.8
20260507110936 67 268 11.0 20.0 0.00 0.00 0.00 48 1012.9
20260507110844 67 257 14.0 21.0 0.00 0.00 0.00 49 1012.9
20260507110747 67 263 15.0 21.0 0.00 0.00 0.00 50 1013.0
20260507110651 67 283 15.0 21.0 0.00 0.00 0.00 50 1013.0
20260507110623 67 275 15.0 21.0 0.00 0.00 0.00 49 1012.2
20260507110542 67 269 15.0 21.0 0.00 0.00 0.00 49 1012.9
20260507110444 67 274 14.0 21.0 0.00 0.00 0.00 49 1012.9
20260507110347 67 292 13.0 21.0 0.00 0.00 0.00 49 1013.0
20260507110251 67 264 12.0 21.0 0.00 0.00 0.00 48 1012.9
20260507110126 68 284 14.0 23.0 0.00 0.00 0.00 48 1013.0
20260507110004 68 308 14.0 23.0 0.00 0.00 0.00 49 1012.9
20260507105908 68 311 16.0 23.0 0.00 0.00 0.00 49 1013.0
20260507105811 68 267 16.0 23.0 0.00 0.00 0.00 51 1013.0
20260507105645 68 274 12.0 23.0 0.00 0.00 0.00 50 1012.9
20260507105416 68 269 15.0 23.0 0.00 0.00 0.00 49 1013.0
20260507105324 68 292 14.0 23.0 0.00 0.00 0.00 49 1013.0
20260507105215 68 275 14.0 21.0 0.00 0.00 0.00 50 1013.1
20260507105053 67 255 14.0 21.0 0.00 0.00 0.00 50 1013.2
20260507104957 67 222 12.0 19.0 0.00 0.00 0.00 51 1013.3
20260507104830 67 253 13.0 19.0 0.00 0.00 0.00 50 1013.2
20260507104711 67 276 14.0 19.0 0.00 0.00 0.00 50 1013.2
20260507104619 67 263 13.0 18.0 0.00 0.00 0.00 49 1013.1
20260507104519 67 243 12.0 18.0 0.00 0.00 0.00 51 1013.2
20260507104352 67 254 12.0 18.0 0.00 0.00 0.00 52 1013.3
20260507104254 67 244 11.0 18.0 0.00 0.00 0.00 51 1013.3
20260507104135 67 250 12.0 18.0 0.00 0.00 0.00 51 1013.3
20260507104036 67 276 14.0 18.0 0.00 0.00 0.00 50 1013.3
20260507104009 66 259 13.0 18.0 0.00 0.00 0.00 50 1012.5
20260507103930 67 299 14.0 18.0 0.00 0.00 0.00 52 1013.3
20260507103838 67 273 13.0 18.0 0.00 0.00 0.00 51 1013.3
20260507103720 67 263 13.0 18.0 0.00 0.00 0.00 50 1013.3
20260507103623 67 268 13.0 20.0 0.00 0.00 0.00 50 1013.2
20260507103552 66 270 12.0 20.0 0.00 0.00 0.00 50 1012.4
20260507103515 67 269 12.0 20.0 0.00 0.00 0.00 49 1013.3
20260507103419 67 270 12.0 20.0 0.00 0.00 0.00 49 1013.3
20260507103323 67 263 13.0 21.0 0.00 0.00 0.00 50 1013.3
20260507103228 67 267 12.0 23.0 0.00 0.00 0.00 52 1013.3
20260507103135 66 262 11.0 23.0 0.00 0.00 0.00 52 1012.5
20260507103058 67 261 11.0 23.0 0.00 0.00 0.00 52 1013.4
20260507103001 67 246 12.0 23.0 0.00 0.00 0.00 52 1013.4
20260507102903 66 266 14.0 23.0 0.00 0.00 0.00 52 1013.3
20260507102805 66 272 15.0 25.0 0.00 0.00 0.00 52 1013.3
20260507102659 66 283 16.0 25.0 0.00 0.00 0.00 51 1013.3
20260507102539 66 259 16.0 25.0 0.00 0.00 0.00 50 1013.4
20260507102445 66 256 15.0 25.0 0.00 0.00 0.00 53 1013.4
20260507102307 66 256 15.0 25.0 0.00 0.00 0.00 52 1013.5
20260507102158 66 253 17.0 25.0 0.00 0.00 0.00 53 1013.4
20260507102037 66 251 16.0 25.0 0.00 0.00 0.00 52 1013.5
20260507101916 65 242 14.0 22.0 0.00 0.00 0.00 52 1013.5
20260507101818 65 238 14.0 22.0 0.00 0.00 0.00 52 1013.5
20260507101716 65 272 16.0 25.0 0.00 0.00 0.00 52 1013.5
20260507101620 65 279 15.0 25.0 0.00 0.00 0.00 52 1013.5
20260507101522 66 240 15.0 25.0 0.00 0.00 0.00 52 1013.5
20260507101424 66 261 15.0 25.0 0.00 0.00 0.00 51 1013.5
20260507101318 66 274 14.0 25.0 0.00 0.00 0.00 52 1013.5
20260507101158 66 253 16.0 25.0 0.00 0.00 0.00 52 1013.6
20260507101038 66 264 17.0 25.0 0.00 0.00 0.00 51 1013.6
20260507100946 66 274 18.0 25.0 0.00 0.00 0.00 52 1013.6
20260507100818 66 259 15.0 22.0 0.00 0.00 0.00 53 1013.6
20260507100719 66 253 16.0 22.0 0.00 0.00 0.00 53 1013.5
20260507100603 66 251 15.0 24.0 0.00 0.00 0.00 53 1013.5
20260507100503 66 242 16.0 24.0 0.00 0.00 0.00 53 1013.6
20260507100332 66 265 16.0 24.0 0.00 0.00 0.00 54 1013.5
20260507100238 66 238 14.0 26.0 0.00 0.00 0.00 52 1013.5
20260507100118 66 247 15.0 26.0 0.00 0.00 0.00 53 1013.5
20260507100000 66 253 15.0 26.0 0.00 0.00 0.00 53 1013.5
20260507095834 65 243 17.0 26.0 0.00 0.00 0.00 54 1013.5
20260507095737 65 260 16.0 26.0 0.00 0.00 0.00 54 1013.6
20260507095640 65 279 18.0 26.0 0.00 0.00 0.00 54 1013.5
20260507095552 65 253 18.0 26.0 0.00 0.00 0.00 54 1012.8
20260507095515 65 265 18.0 26.0 0.00 0.00 0.00 53 1013.6
20260507095415 65 269 16.0 23.0 0.00 0.00 0.00 53 1013.5
20260507095318 65 257 16.0 23.0 0.00 0.00 0.00 52 1013.5
20260507095220 65 280 17.0 23.0 0.00 0.00 0.00 54 1013.5
20260507095150 65 276 16.0 23.0 0.00 0.00 0.00 54 1012.6
20260507095111 65 282 17.0 23.0 0.00 0.00 0.00 55 1013.4
20260507094933 65 273 17.0 21.0 0.00 0.00 0.00 56 1013.4
20260507094703 64 271 14.0 20.0 0.00 0.00 0.00 57 1013.5
20260507094601 64 270 13.0 19.0 0.00 0.00 0.00 58 1013.4
20260507094443 64 268 12.0 21.0 0.00 0.00 0.00 57 1013.4
20260507094337 63 269 10.0 21.0 0.00 0.00 0.00 57 1013.4
20260507094239 63 285 11.0 21.0 0.00 0.00 0.00 56 1013.4
20260507094140 63 263 13.0 21.0 0.00 0.00 0.00 56 1013.5
20260507094045 64 257 15.0 21.0 0.00 0.00 0.00 55 1013.4
20260507093918 64 279 15.0 21.0 0.00 0.00 0.00 56 1013.5
20260507093821 64 274 15.0 21.0 0.00 0.00 0.00 57 1013.5
20260507093703 63 268 14.0 21.0 0.00 0.00 0.00 57 1013.5
20260507093603 63 282 12.0 21.0 0.00 0.00 0.00 57 1013.4
20260507093535 63 277 12.0 21.0 0.00 0.00 0.00 57 1012.7
20260507093455 63 279 13.0 21.0 0.00 0.00 0.00 58 1013.5
20260507093338 63 250 15.0 22.0 0.00 0.00 0.00 57 1013.5
20260507093222 63 245 16.0 22.0 0.00 0.00 0.00 56 1013.5
20260507093125 63 247 16.0 22.0 0.00 0.00 0.00 57 1013.5
20260507093054 63 257 14.0 22.0 0.00 0.00 0.00 57 1012.7
20260507093016 63 255 14.0 22.0 0.00 0.00 0.00 56 1013.6
20260507092917 63 264 14.0 22.0 0.00 0.00 0.00 57 1013.5
20260507092821 64 249 16.0 22.0 0.00 0.00 0.00 56 1013.6
20260507092703 64 246 17.0 22.0 0.00 0.00 0.00 55 1013.6
20260507092635 64 245 17.0 22.0 0.00 0.00 0.00 55 1012.7
20260507092556 64 274 15.0 24.0 0.00 0.00 0.00 55 1013.6
20260507092438 64 290 14.0 24.0 0.00 0.00 0.00 55 1013.5
20260507092341 64 267 14.0 24.0 0.00 0.00 0.00 55 1013.5
20260507092242 65 262 15.0 24.0 0.00 0.00 0.00 56 1013.5
20260507092137 65 285 15.0 24.0 0.00 0.00 0.00 54 1013.5
20260507092037 65 276 14.0 24.0 0.00 0.00 0.00 56 1013.5
20260507091940 64 263 16.0 24.0 0.00 0.00 0.00 56 1013.5
20260507091847 64 267 17.0 24.0 0.00 0.00 0.00 57 1013.6
20260507091741 64 268 17.0 22.0 0.00 0.00 0.00 57 1013.5
20260507091621 64 247 15.0 22.0 0.00 0.00 0.00 58 1013.5
20260507091523 64 269 13.0 19.0 0.00 0.00 0.00 58 1013.5
20260507091427 64 263 13.0 20.0 0.00 0.00 0.00 58 1013.6
20260507091259 64 251 13.0 20.0 0.00 0.00 0.00 58 1013.5
20260507091204 64 268 14.0 20.0 0.00 0.00 0.00 57 1013.5
20260507091103 64 276 14.0 20.0 0.00 0.00 0.00 57 1013.6
20260507090946 64 280 13.0 21.0 0.00 0.00 0.00 57 1013.5
20260507090849 64 274 13.0 21.0 0.00 0.00 0.00 57 1013.5
20260507090743 64 273 13.0 21.0 0.00 0.00 0.00 58 1013.5
20260507090645 64 265 14.0 21.0 0.00 0.00 0.00 57 1013.5
20260507090546 64 240 13.0 21.0 0.00 0.00 0.00 57 1013.5
20260507090520 63 259 12.0 21.0 0.00 0.00 0.00 57 1012.7
20260507090443 64 287 13.0 21.0 0.00 0.00 0.00 57 1013.4
20260507090325 64 269 17.0 21.0 0.00 0.00 0.00 58 1013.5
20260507090227 64 276 15.0 21.0 0.00 0.00 0.00 59 1013.5
20260507090129 64 270 13.0 20.0 0.00 0.00 0.00 59 1013.5
20260507090105 63 282 12.0 20.0 0.00 0.00 0.00 59 1012.6
20260507090020 64 273 13.0 20.0 0.00 0.00 0.00 59 1013.5
20260507085922 64 276 14.0 20.0 0.00 0.00 0.00 59 1013.4
20260507085829 63 282 15.0 20.0 0.00 0.00 0.00 59 1013.3
20260507085731 63 269 15.0 20.0 0.00 0.00 0.00 59 1013.4
20260507085627 63 272 15.0 20.0 0.00 0.00 0.00 57 1013.5
20260507085444 64 272 13.0 20.0 0.00 0.00 0.00 58 1013.4
20260507085348 64 259 14.0 19.0 0.00 0.00 0.00 57 1013.4
20260507085250 63 286 15.0 19.0 0.00 0.00 0.00 59 1013.5
20260507085143 63 250 15.0 19.0 0.00 0.00 0.00 59 1013.5
20260507085047 63 253 14.0 21.0 0.00 0.00 0.00 60 1013.5
20260507084948 63 264 14.0 26.0 0.00 0.00 0.00 59 1013.4
20260507084851 63 275 15.0 26.0 0.00 0.00 0.00 59 1013.4
20260507084702 63 262 14.0 26.0 0.00 0.00 0.00 59 1013.5
20260507084559 63 277 14.0 26.0 0.00 0.00 0.00 59 1013.4
20260507084501 63 231 15.0 26.0 0.00 0.00 0.00 59 1013.4
20260507084408 63 275 16.0 26.0 0.00 0.00 0.00 59 1013.5
20260507084301 63 259 19.0 26.0 0.00 0.00 0.00 59 1013.5
20260507084200 62 253 19.0 26.0 0.00 0.00 0.00 59 1013.5
20260507084100 62 257 19.0 26.0 0.00 0.00 0.00 59 1013.4
20260507084026 62 267 19.0 23.0 0.00 0.00 0.00 58 1012.6
20260507083953 62 260 19.0 24.0 0.00 0.00 0.00 58 1013.4
20260507083854 62 276 17.0 22.0 0.00 0.00 0.00 60 1013.4
20260507083756 62 267 16.0 22.0 0.00 0.00 0.00 60 1013.4
20260507083703 62 281 15.0 22.0 0.00 0.00 0.00 60 1013.4
20260507083630 62 268 14.0 22.0 0.00 0.00 0.00 60 1012.6
20260507083555 62 261 15.0 22.0 0.00 0.00 0.00 60 1013.5
20260507083458 62 281 16.0 22.0 0.00 0.00 0.00 60 1013.4
20260507083401 62 270 18.0 22.0 0.00 0.00 0.00 60 1013.5
20260507083302 62 269 17.0 22.0 0.00 0.00 0.00 59 1013.5
20260507083154 62 240 15.0 21.0 0.00 0.00 0.00 60 1013.4
20260507083059 62 273 16.0 21.0 0.00 0.00 0.00 60 1013.5
20260507083002 62 251 17.0 21.0 0.00 0.00 0.00 61 1013.5
20260507082844 62 271 13.0 25.0 0.00 0.00 0.00 62 1013.5
20260507082717 62 237 14.0 25.0 0.00 0.00 0.00 61 1013.4
20260507082618 62 286 14.0 25.0 0.00 0.00 0.00 61 1013.4
20260507082459 62 276 15.0 25.0 0.00 0.00 0.00 62 1013.4
20260507082403 62 255 15.0 25.0 0.00 0.00 0.00 60 1013.4
20260507082258 62 281 16.0 25.0 0.00 0.00 0.00 61 1013.4
20260507082159 62 253 19.0 25.0 0.00 0.00 0.00 60 1013.4
20260507082104 62 280 19.0 25.0 0.00 0.00 0.00 60 1013.4
20260507082004 62 255 16.0 22.0 0.00 0.00 0.00 61 1013.3
20260507081838 61 248 13.0 16.0 0.00 0.00 0.00 62 1013.3
20260507081741 61 266 12.0 18.0 0.00 0.00 0.00 63 1013.4
20260507081647 61 272 13.0 18.0 0.00 0.00 0.00 62 1013.3
20260507081528 61 280 14.0 19.0 0.00 0.00 0.00 61 1013.3
20260507081502 60 253 14.0 19.0 0.00 0.00 0.00 61 1012.4
20260507081421 61 259 14.0 19.0 0.00 0.00 0.00 62 1013.4
20260507081324 61 269 14.0 19.0 0.00 0.00 0.00 62 1013.3
20260507081226 61 272 14.0 19.0 0.00 0.00 0.00 61 1013.3
20260507081130 61 251 13.0 19.0 0.00 0.00 0.00 62 1013.2
20260507081109 60 254 13.0 19.0 0.00 0.00 0.00 61 1012.4
20260507080959 61 272 14.0 19.0 0.00 0.00 0.00 61 1013.2
20260507080905 61 257 15.0 20.0 0.00 0.00 0.00 60 1013.2
20260507080809 61 286 15.0 20.0 0.00 0.00 0.00 61 1013.2
20260507080710 61 274 15.0 20.0 0.00 0.00 0.00 61 1013.2
20260507080648 61 283 15.0 20.0 0.00 0.00 0.00 61 1012.3
20260507080605 61 259 15.0 20.0 0.00 0.00 0.00 61 1013.1
20260507080443 61 268 12.0 20.0 0.00 0.00 0.00 61 1013.1
20260507080347 61 272 13.0 20.0 0.00 0.00 0.00 62 1013.1
20260507080255 61 269 15.0 20.0 0.00 0.00 0.00 62 1013.1
20260507080127 61 261 16.0 20.0 0.00 0.00 0.00 62 1013.1
20260507080029 61 251 15.0 21.0 0.00 0.00 0.00 62 1013.1
20260507075931 61 256 14.0 21.0 0.00 0.00 0.00 62 1013.1
20260507075813 61 262 15.0 21.0 0.00 0.00 0.00 62 1013.0
20260507075645 61 257 15.0 21.0 0.00 0.00 0.00 62 1013.0
20260507075546 61 256 15.0 21.0 0.00 0.00 0.00 62 1013.0
20260507075453 61 252 14.0 21.0 0.00 0.00 0.00 62 1013.0
20260507075335 61 277 15.0 21.0 0.00 0.00 0.00 62 1013.0
20260507075229 61 266 15.0 21.0 0.00 0.00 0.00 63 1013.0
20260507075131 61 248 12.0 19.0 0.00 0.00 0.00 63 1012.9
20260507075011 61 269 11.0 19.0 0.00 0.00 0.00 64 1012.9
20260507074914 61 257 10.0 19.0 0.00 0.00 0.00 64 1013.0
20260507074811 61 275 13.0 19.0 0.00 0.00 0.00 63 1013.0
20260507074650 61 261 12.0 19.0 0.00 0.00 0.00 65 1013.0
20260507074552 61 251 12.0 19.0 0.00 0.00 0.00 66 1013.0
20260507074455 61 249 11.0 19.0 0.00 0.00 0.00 66 1013.1
20260507074328 60 263 10.0 19.0 0.00 0.00 0.00 66 1013.1
20260507074230 60 268 12.0 19.0 0.00 0.00 0.00 65 1013.1
20260507074111 60 257 13.0 19.0 0.00 0.00 0.00 65 1013.1
20260507074016 60 247 12.0 19.0 0.00 0.00 0.00 66 1013.1
20260507073848 60 251 14.0 19.0 0.00 0.00 0.00 66 1013.1
20260507073729 60 266 14.0 19.0 0.00 0.00 0.00 67 1013.1
20260507073610 60 253 13.0 17.0 0.00 0.00 0.00 67 1013.1
20260507073511 59 264 13.0 17.0 0.00 0.00 0.00 66 1013.0
20260507073405 59 255 13.0 17.0 0.00 0.00 0.00 67 1013.0
20260507073229 59 251 13.0 17.0 0.00 0.00 0.00 67 1013.0
20260507073132 59 272 13.0 17.0 0.00 0.00 0.00 67 1013.1
20260507073031 59 280 14.0 17.0 0.00 0.00 0.00 67 1013.0
20260507072913 59 268 14.0 17.0 0.00 0.00 0.00 67 1013.1
20260507072807 59 266 13.0 17.0 0.00 0.00 0.00 67 1013.0
20260507072709 59 272 11.0 17.0 0.00 0.00 0.00 68 1013.1
20260507072612 59 278 11.0 17.0 0.00 0.00 0.00 68 1013.0
20260507072516 59 271 12.0 17.0 0.00 0.00 0.00 68 1013.0
20260507072411 59 261 12.0 17.0 0.00 0.00 0.00 68 1013.0
20260507072315 59 243 12.0 16.0 0.00 0.00 0.00 68 1012.9
20260507072215 59 256 12.0 16.0 0.00 0.00 0.00 69 1012.9
20260507072119 59 257 12.0 16.0 0.00 0.00 0.00 69 1013.0
20260507072049 58 265 12.0 16.0 0.00 0.00 0.00 67 1012.1
20260507072010 59 256 12.0 16.0 0.00 0.00 0.00 68 1012.9
20260507071916 59 243 11.0 16.0 0.00 0.00 0.00 68 1013.0
20260507071820 59 238 12.0 16.0 0.00 0.00 0.00 70 1012.9
20260507071723 59 266 12.0 16.0 0.00 0.00 0.00 70 1013.0
20260507071652 58 247 11.0 16.0 0.00 0.00 0.00 70 1012.1
20260507071615 59 258 11.0 13.0 0.00 0.00 0.00 70 1012.9
20260507071516 59 257 11.0 13.0 0.00 0.00 0.00 70 1012.9
20260507071417 59 242 9.0 12.0 0.00 0.00 0.00 71 1012.9
20260507071321 58 257 9.0 12.0 0.00 0.00 0.00 70 1012.9
20260507071216 58 234 9.0 12.0 0.00 0.00 0.00 70 1012.9
20260507071119 58 270 9.0 12.0 0.00 0.00 0.00 70 1012.9
20260507071018 58 259 9.0 12.0 0.00 0.00 0.00 71 1012.9
20260507070859 58 261 9.0 14.0 0.00 0.00 0.00 71 1013.0
20260507070754 58 268 8.0 14.0 0.00 0.00 0.00 71 1013.0
20260507070656 58 260 8.0 14.0 0.00 0.00 0.00 71 1012.9
20260507070558 58 226 8.0 14.0 0.00 0.00 0.00 72 1012.9
20260507070500 58 253 7.0 14.0 0.00 0.00 0.00 72 1012.9
20260507070334 58 276 8.0 14.0 0.00 0.00 0.00 72 1013.0
20260507070236 58 270 10.0 14.0 0.00 0.00 0.00 71 1013.0
20260507070129 58 248 10.0 14.0 0.00 0.00 0.00 72 1013.0
20260507070030 57 256 8.0 12.0 0.00 0.00 0.00 72 1012.9
20260507065915 57 264 8.0 10.0 0.00 0.00 0.00 72 1012.9
20260507065819 57 272 8.0 10.0 0.00 0.00 0.00 72 1012.9
20260507065650 57 259 7.0 10.0 0.00 0.00 0.00 72 1012.9
20260507065532 57 284 8.0 11.0 0.00 0.00 0.00 72 1012.9
20260507065436 57 279 8.0 11.0 0.00 0.00 0.00 72 1012.9
20260507065307 57 262 8.0 11.0 0.00 0.00 0.00 72 1012.9
20260507065213 57 277 7.0 11.0 0.00 0.00 0.00 72 1012.9
20260507065116 57 251 7.0 11.0 0.00 0.00 0.00 72 1012.9
20260507065017 57 243 8.0 12.0 0.00 0.00 0.00 71 1012.9
20260507064909 57 262 9.0 15.0 0.00 0.00 0.00 72 1012.9
20260507064752 57 237 8.0 15.0 0.00 0.00 0.00 72 1012.9
20260507064633 57 265 8.0 15.0 0.00 0.00 0.00 71 1013.0
20260507064558 57 268 8.0 15.0 0.00 0.00 0.00 72 1012.1
20260507064522 57 276 9.0 15.0 0.00 0.00 0.00 72 1013.0
20260507064345 57 263 8.0 15.0 0.00 0.00 0.00 71 1013.0
20260507064226 57 227 9.0 15.0 0.00 0.00 0.00 71 1013.0
20260507064129 57 238 9.0 14.0 0.00 0.00 0.00 72 1012.9
20260507064028 57 261 10.0 13.0 0.00 0.00 0.00 72 1013.0
20260507064005 57 246 10.0 13.0 0.00 0.00 0.00 72 1012.1
20260507063922 57 249 10.0 13.0 0.00 0.00 0.00 72 1013.0
20260507063825 57 251 10.0 13.0 0.00 0.00 0.00 72 1012.9
20260507063711 57 253 10.0 13.0 0.00 0.00 0.00 72 1012.9
20260507063637 57 243 9.0 13.0 0.00 0.00 0.00 72 1012.1
20260507063604 57 229 9.0 13.0 0.00 0.00 0.00 72 1013.0
20260507063504 57 261 10.0 13.0 0.00 0.00 0.00 72 1012.9
20260507063347 57 251 8.0 12.0 0.00 0.00 0.00 72 1012.9
20260507063250 57 257 8.0 12.0 0.00 0.00 0.00 73 1012.9
20260507063152 57 265 9.0 12.0 0.00 0.00 0.00 72 1012.9
20260507063127 57 255 9.0 12.0 0.00 0.00 0.00 72 1012.0
20260507063047 57 258 9.0 12.0 0.00 0.00 0.00 72 1012.9
20260507062950 57 253 9.0 12.0 0.00 0.00 0.00 72 1012.9
20260507062831 57 248 9.0 13.0 0.00 0.00 0.00 72 1012.9
20260507062735 57 274 9.0 13.0 0.00 0.00 0.00 72 1012.9
20260507062650 56 279 9.0 13.0 0.00 0.00 0.00 72 1012.0
20260507062544 57 258 8.0 13.0 0.00 0.00 0.00 73 1012.9
20260507062447 57 243 8.0 13.0 0.00 0.00 0.00 73 1012.9
20260507062335 57 261 8.0 13.0 0.00 0.00 0.00 73 1012.9
20260507062225 57 258 9.0 13.0 0.00 0.00 0.00 73 1012.9
20260507062106 57 273 9.0 13.0 0.00 0.00 0.00 73 1012.8
20260507062003 57 268 9.0 12.0 0.00 0.00 0.00 73 1012.7
20260507061845 57 261 9.0 12.0 0.00 0.00 0.00 73 1012.7
20260507061716 57 276 10.0 13.0 0.00 0.00 0.00 72 1012.7
20260507061555 57 281 9.0 13.0 0.00 0.00 0.00 73 1012.7
20260507061503 57 272 9.0 13.0 0.00 0.00 0.00 73 1012.7
20260507061406 57 266 9.0 13.0 0.00 0.00 0.00 72 1012.8
20260507061301 57 276 10.0 13.0 0.00 0.00 0.00 72 1012.8
20260507061202 57 263 10.0 13.0 0.00 0.00 0.00 73 1012.7
20260507061041 57 255 9.0 13.0 0.00 0.00 0.00 73 1012.7
20260507060913 57 276 9.0 11.0 0.00 0.00 0.00 74 1012.7
20260507060819 57 245 7.0 11.0 0.00 0.00 0.00 74 1012.6
20260507060700 56 255 7.0 11.0 0.00 0.00 0.00 74 1012.6
20260507060559 56 274 8.0 11.0 0.00 0.00 0.00 74 1012.6
20260507060527 56 283 8.0 11.0 0.00 0.00 0.00 74 1011.8
20260507060452 56 263 8.0 11.0 0.00 0.00 0.00 74 1012.6
20260507060355 56 270 8.0 11.0 0.00 0.00 0.00 74 1012.6
20260507060257 56 271 8.0 11.0 0.00 0.00 0.00 74 1012.6
20260507060120 56 268 7.0 11.0 0.00 0.00 0.00 74 1012.6
20260507060004 56 312 6.0 10.0 0.00 0.00 0.00 74 1012.5
20260507055854 56 287 5.0 10.0 0.00 0.00 0.00 74 1012.5
20260507055755 56 270 5.0 10.0 0.00 0.00 0.00 74 1012.5
20260507055636 56 280 7.0 10.0 0.00 0.00 0.00 74 1012.5
20260507055606 56 266 6.0 11.0 0.00 0.00 0.00 75 1011.6
20260507055505 56 268 6.0 11.0 0.00 0.00 0.00 75 1012.5
20260507055408 56 251 6.0 11.0 0.00 0.00 0.00 75 1012.5
20260507055316 56 288 6.0 11.0 0.00 0.00 0.00 75 1012.5
20260507055218 56 271 6.0 11.0 0.00 0.00 0.00 75 1012.5
20260507055148 56 276 6.0 14.0 0.00 0.00 0.00 74 1011.6
20260507055112 56 278 7.0 14.0 0.00 0.00 0.00 74 1012.5
20260507055013 56 292 8.0 14.0 0.00 0.00 0.00 75 1012.5
20260507054915 56 280 9.0 14.0 0.00 0.00 0.00 74 1012.5
20260507054817 56 283 8.0 14.0 0.00 0.00 0.00 75 1012.5
20260507054647 56 274 8.0 14.0 0.00 0.00 0.00 75 1012.4
20260507054551 56 290 9.0 14.0 0.00 0.00 0.00 75 1012.5
20260507054433 56 282 9.0 14.0 0.00 0.00 0.00 75 1012.5
20260507054326 56 261 9.0 14.0 0.00 0.00 0.00 75 1012.5
20260507054227 56 278 8.0 12.0 0.00 0.00 0.00 76 1012.5
20260507054130 56 274 7.0 10.0 0.00 0.00 0.00 76 1012.4
20260507054007 56 269 7.0 13.0 0.00 0.00 0.00 76 1012.4
20260507053903 56 248 6.0 13.0 0.00 0.00 0.00 76 1012.4
20260507053806 56 272 7.0 13.0 0.00 0.00 0.00 76 1012.4
20260507053707 56 286 8.0 13.0 0.00 0.00 0.00 76 1012.4
20260507053611 55 278 8.0 13.0 0.00 0.00 0.00 76 1012.4
20260507053546 55 276 7.0 13.0 0.00 0.00 0.00 76 1011.4
20260507053500 55 276 8.0 13.0 0.00 0.00 0.00 76 1012.3
20260507053401 55 274 10.0 13.0 0.00 0.00 0.00 76 1012.3
20260507053309 55 272 10.0 13.0 0.00 0.00 0.00 76 1012.3
20260507053140 55 270 9.0 14.0 0.00 0.00 0.00 76 1012.3
20260507053040 55 280 9.0 14.0 0.00 0.00 0.00 76 1012.3
20260507052918 55 276 8.0 14.0 0.00 0.00 0.00 76 1012.2
20260507052820 55 260 8.0 14.0 0.00 0.00 0.00 76 1012.2
20260507052722 55 247 9.0 14.0 0.00 0.00 0.00 76 1012.2
20260507052636 55 268 9.0 14.0 0.00 0.00 0.00 76 1011.3
20260507052551 55 275 9.0 14.0 0.00 0.00 0.00 76 1012.2
20260507052456 55 278 9.0 14.0 0.00 0.00 0.00 76 1012.2
20260507052359 55 273 9.0 14.0 0.00 0.00 0.00 76 1012.2
20260507052232 55 271 9.0 12.0 0.00 0.00 0.00 76 1012.1
20260507052134 55 259 9.0 12.0 0.00 0.00 0.00 76 1012.1
20260507052035 55 280 8.0 12.0 0.00 0.00 0.00 76 1012.0
20260507052003 54 263 7.0 12.0 0.00 0.00 0.00 76 1011.1
20260507051927 55 272 9.0 12.0 0.00 0.00 0.00 76 1012.0
20260507051813 55 279 9.0 12.0 0.00 0.00 0.00 76 1012.0
20260507051714 55 289 9.0 12.0 0.00 0.00 0.00 76 1012.0
20260507051617 55 270 9.0 12.0 0.00 0.00 0.00 77 1012.0
20260507051540 54 265 9.0 12.0 0.00 0.00 0.00 77 1011.0
20260507051509 55 292 9.0 12.0 0.00 0.00 0.00 77 1012.0
20260507051412 55 295 8.0 12.0 0.00 0.00 0.00 77 1012.0
20260507051314 55 272 8.0 12.0 0.00 0.00 0.00 77 1012.0
20260507051219 55 263 7.0 12.0 0.00 0.00 0.00 77 1012.0
20260507051148 54 260 7.0 12.0 0.00 0.00 0.00 77 1011.0
20260507051109 54 263 8.0 12.0 0.00 0.00 0.00 77 1012.0
20260507050951 54 267 8.0 12.0 0.00 0.00 0.00 77 1012.0
20260507050854 54 261 7.0 10.0 0.00 0.00 0.00 78 1012.0
20260507050756 54 271 7.0 10.0 0.00 0.00 0.00 78 1012.0
20260507050651 54 280 7.0 10.0 0.00 0.00 0.00 78 1012.0
20260507050551 54 261 6.0 10.0 0.00 0.00 0.00 78 1012.0
20260507050458 54 274 6.0 10.0 0.00 0.00 0.00 78 1011.9
20260507050332 54 259 7.0 10.0 0.00 0.00 0.00 78 1011.9
20260507050233 54 253 6.0 10.0 0.00 0.00 0.00 78 1011.9
20260507050135 54 285 6.0 10.0 0.00 0.00 0.00 78 1011.9
20260507050103 54 271 5.0 10.0 0.00 0.00 0.00 78 1011.0
20260507050026 54 278 6.0 10.0 0.00 0.00 0.00 78 1011.9
20260507045928 54 282 7.0 10.0 0.00 0.00 0.00 78 1011.9
20260507045656 54 275 7.0 11.0 0.00 0.00 0.00 78 1011.9
20260507045536 54 273 7.0 11.0 0.00 0.00 0.00 78 1011.9
20260507045438 54 279 8.0 11.0 0.00 0.00 0.00 78 1011.9
20260507045342 54 282 8.0 11.0 0.00 0.00 0.00 78 1011.9
20260507045246 54 284 8.0 11.0 0.00 0.00 0.00 78 1011.9
20260507045139 54 274 8.0 12.0 0.00 0.00 0.00 78 1011.9
20260507045042 54 257 8.0 12.0 0.00 0.00 0.00 79 1011.8
20260507044946 54 282 8.0 12.0 0.00 0.00 0.00 79 1011.8
20260507044839 54 282 8.0 12.0 0.00 0.00 0.00 79 1011.8
20260507044719 54 280 8.0 12.0 0.00 0.00 0.00 79 1011.8
20260507044623 54 280 8.0 12.0 0.00 0.00 0.00 79 1011.7
20260507044524 54 272 9.0 12.0 0.00 0.00 0.00 79 1011.7
20260507044421 54 266 9.0 12.0 0.00 0.00 0.00 79 1011.6
20260507044325 54 265 8.0 12.0 0.00 0.00 0.00 79 1011.7
20260507044225 54 280 7.0 12.0 0.00 0.00 0.00 79 1011.7
20260507044036 53 301 7.0 12.0 0.00 0.00 0.00 79 1010.8
20260507043948 53 257 7.0 12.0 0.00 0.00 0.00 79 1011.6
20260507043850 53 279 8.0 12.0 0.00 0.00 0.00 79 1011.6
20260507043752 53 279 8.0 12.0 0.00 0.00 0.00 79 1011.6
20260507043639 53 276 9.0 12.0 0.00 0.00 0.00 79 1011.6
20260507043613 53 270 9.0 12.0 0.00 0.00 0.00 79 1010.7
20260507043531 53 269 9.0 12.0 0.00 0.00 0.00 79 1011.6
20260507043413 53 265 8.0 11.0 0.00 0.00 0.00 79 1011.6
20260507043317 53 265 8.0 11.0 0.00 0.00 0.00 79 1011.6
20260507043219 53 281 9.0 11.0 0.00 0.00 0.00 79 1011.6
20260507043156 53 274 9.0 11.0 0.00 0.00 0.00 79 1010.7
20260507043112 53 282 9.0 11.0 0.00 0.00 0.00 80 1011.6
20260507043012 53 274 8.0 11.0 0.00 0.00 0.00 80 1011.6
20260507042919 53 267 8.0 10.0 0.00 0.00 0.00 80 1011.6
20260507042813 53 270 8.0 10.0 0.00 0.00 0.00 80 1011.6
20260507042654 53 276 8.0 10.0 0.00 0.00 0.00 80 1011.4
20260507042554 53 272 8.0 10.0 0.00 0.00 0.00 80 1011.5
20260507042456 53 274 8.0 10.0 0.00 0.00 0.00 80 1011.5
20260507042218 53 276 8.0 10.0 0.00 0.00 0.00 80 1011.4
20260507042124 53 273 8.0 10.0 0.00 0.00 0.00 80 1011.4
20260507042052 53 252 7.0 10.0 0.00 0.00 0.00 80 1010.5
20260507042016 53 276 7.0 10.0 0.00 0.00 0.00 80 1011.4
20260507041918 53 269 7.0 10.0 0.00 0.00 0.00 80 1011.4
20260507041820 53 276 6.0 10.0 0.00 0.00 0.00 80 1011.4
20260507041723 53 272 6.0 11.0 0.00 0.00 0.00 80 1011.3
20260507041636 53 265 5.0 11.0 0.00 0.00 0.00 80 1010.5
20260507041534 53 272 7.0 12.0 0.00 0.00 0.00 80 1011.3
20260507041442 53 268 8.0 12.0 0.00 0.00 0.00 80 1011.3
20260507041313 53 270 7.0 12.0 0.00 0.00 0.00 80 1011.2
20260507041215 53 273 7.0 12.0 0.00 0.00 0.00 79 1011.2
20260507041119 53 278 8.0 12.0 0.00 0.00 0.00 79 1011.3
20260507041019 53 267 9.0 12.0 0.00 0.00 0.00 79 1011.3
20260507040912 53 286 9.0 12.0 0.00 0.00 0.00 79 1011.2
20260507040820 53 269 9.0 12.0 0.00 0.00 0.00 79 1011.2
20260507040723 53 263 9.0 11.0 0.00 0.00 0.00 79 1011.3
20260507040626 53 257 9.0 11.0 0.00 0.00 0.00 79 1011.3
20260507040553 53 268 8.0 11.0 0.00 0.00 0.00 79 1010.4
20260507040516 53 263 9.0 11.0 0.00 0.00 0.00 79 1011.2
20260507040420 53 271 9.0 11.0 0.00 0.00 0.00 79 1011.2
20260507040321 53 268 9.0 11.0 0.00 0.00 0.00 79 1011.2
20260507040223 53 270 9.0 10.0 0.00 0.00 0.00 79 1011.2
20260507040155 53 268 8.0 10.0 0.00 0.00 0.00 79 1010.3
20260507040115 53 266 8.0 11.0 0.00 0.00 0.00 79 1011.2
20260507035936 53 266 8.0 11.0 0.00 0.00 0.00 79 1011.2
20260507035839 53 270 8.0 11.0 0.00 0.00 0.00 79 1011.2
20260507035743 54 257 7.0 12.0 0.00 0.00 0.00 78 1011.2
20260507035615 54 280 7.0 12.0 0.00 0.00 0.00 78 1011.1
20260507035515 54 284 6.0 12.0 0.00 0.00 0.00 78 1011.1
20260507035423 54 268 6.0 12.0 0.00 0.00 0.00 78 1011.1
20260507035326 54 270 8.0 12.0 0.00 0.00 0.00 78 1011.1
20260507035218 54 271 8.0 12.0 0.00 0.00 0.00 78 1011.0
20260507035120 54 265 8.0 12.0 0.00 0.00 0.00 78 1011.0
20260507034959 54 268 9.0 12.0 0.00 0.00 0.00 78 1011.0
20260507034850 54 261 10.0 12.0 0.00 0.00 0.00 78 1010.9
20260507034737 54 274 9.0 12.0 0.00 0.00 0.00 78 1010.9
20260507034640 54 268 9.0 13.0 0.00 0.00 0.00 78 1010.9
20260507034601 53 276 9.0 13.0 0.00 0.00 0.00 78 1010.1
20260507034510 54 270 9.0 13.0 0.00 0.00 0.00 78 1011.0
20260507034352 54 274 9.0 13.0 0.00 0.00 0.00 78 1011.0
20260507034254 54 263 10.0 13.0 0.00 0.00 0.00 78 1011.0
20260507034148 54 275 10.0 13.0 0.00 0.00 0.00 78 1010.9
20260507034049 54 271 9.0 13.0 0.00 0.00 0.00 78 1010.9
20260507033954 54 265 9.0 13.0 0.00 0.00 0.00 78 1010.9
20260507033857 54 267 10.0 13.0 0.00 0.00 0.00 78 1010.9
20260507033732 54 286 9.0 13.0 0.00 0.00 0.00 78 1010.9
20260507033636 54 265 8.0 11.0 0.00 0.00 0.00 78 1010.9
20260507033514 54 277 8.0 11.0 0.00 0.00 0.00 77 1010.9
20260507033221 54 263 8.0 11.0 0.00 0.00 0.00 77 1010.8
20260507033121 54 288 9.0 11.0 0.00 0.00 0.00 77 1010.8
20260507033029 53 271 8.0 11.0 0.00 0.00 0.00 77 1009.9
20260507032934 54 294 9.0 11.0 0.00 0.00 0.00 77 1010.8
20260507032836 54 288 9.0 12.0 0.00 0.00 0.00 77 1010.8
20260507032719 54 287 8.0 12.0 0.00 0.00 0.00 77 1010.8
20260507032649 53 279 7.0 12.0 0.00 0.00 0.00 77 1009.9
20260507032611 54 299 8.0 12.0 0.00 0.00 0.00 77 1010.8
20260507032437 54 276 8.0 12.0 0.00 0.00 0.00 77 1010.8
20260507032319 54 268 8.0 12.0 0.00 0.00 0.00 77 1010.8
20260507032213 54 274 9.0 12.0 0.00 0.00 0.00 77 1010.8
20260507032113 54 272 9.0 12.0 0.00 0.00 0.00 77 1010.8
20260507032014 54 277 9.0 12.0 0.00 0.00 0.00 77 1010.8
20260507031917 54 286 10.0 12.0 0.00 0.00 0.00 77 1010.8
20260507031755 54 274 9.0 12.0 0.00 0.00 0.00 77 1010.8
20260507031658 54 265 8.0 12.0 0.00 0.00 0.00 77 1010.8
20260507031559 54 269 8.0 12.0 0.00 0.00 0.00 77 1010.8
20260507031502 54 272 9.0 12.0 0.00 0.00 0.00 77 1010.8
20260507031355 54 276 10.0 12.0 0.00 0.00 0.00 77 1010.8
20260507031259 54 279 10.0 12.0 0.00 0.00 0.00 77 1010.8
20260507031141 54 265 9.0 11.0 0.00 0.00 0.00 77 1010.8
20260507031044 54 273 9.0 11.0 0.00 0.00 0.00 77 1010.8
20260507031021 54 274 8.0 11.0 0.00 0.00 0.00 77 1009.9
20260507030938 54 270 9.0 11.0 0.00 0.00 0.00 77 1010.8
20260507030842 54 274 9.0 11.0 0.00 0.00 0.00 77 1010.8
20260507030745 54 270 8.0 11.0 0.00 0.00 0.00 77 1010.8
20260507030627 54 276 8.0 11.0 0.00 0.00 0.00 77 1010.9
20260507030603 54 277 8.0 11.0 0.00 0.00 0.00 77 1010.0
20260507030519 54 272 9.0 11.0 0.00 0.00 0.00 77 1010.9
20260507030425 54 271 9.0 11.0 0.00 0.00 0.00 77 1010.9
20260507030327 54 269 8.0 11.0 0.00 0.00 0.00 76 1010.9
20260507030209 54 269 8.0 11.0 0.00 0.00 0.00 76 1010.9
20260507030139 54 259 7.0 11.0 0.00 0.00 0.00 76 1010.0
20260507030057 54 280 7.0 11.0 0.00 0.00 0.00 76 1010.9
20260507025959 54 265 8.0 11.0 0.00 0.00 0.00 76 1010.9
20260507025900 54 265 8.0 12.0 0.00 0.00 0.00 76 1010.9
20260507025754 54 266 9.0 13.0 0.00 0.00 0.00 76 1010.9
20260507025701 55 268 8.0 13.0 0.00 0.00 0.00 76 1010.9
20260507025604 55 257 9.0 14.0 0.00 0.00 0.00 76 1010.9
20260507025444 55 255 9.0 14.0 0.00 0.00 0.00 76 1010.9
20260507025337 55 278 8.0 14.0 0.00 0.00 0.00 76 1010.9
20260507025239 55 261 8.0 14.0 0.00 0.00 0.00 76 1010.8
20260507025120 55 268 10.0 14.0 0.00 0.00 0.00 76 1010.8
20260507025024 55 253 10.0 14.0 0.00 0.00 0.00 76 1010.9
20260507025001 54 256 10.0 14.0 0.00 0.00 0.00 76 1010.0
20260507024917 55 258 10.0 14.0 0.00 0.00 0.00 76 1010.8
20260507024819 55 272 9.0 14.0 0.00 0.00 0.00 76 1010.8
20260507024723 55 268 9.0 14.0 0.00 0.00 0.00 76 1010.8
20260507024649 54 263 9.0 14.0 0.00 0.00 0.00 75 1009.9
20260507024615 55 251 10.0 14.0 0.00 0.00 0.00 75 1010.7
20260507024456 55 256 10.0 14.0 0.00 0.00 0.00 75 1010.7
20260507024338 55 252 11.0 14.0 0.00 0.00 0.00 75 1010.7
20260507024243 55 272 10.0 17.0 0.00 0.00 0.00 75 1010.7
20260507024143 55 274 10.0 17.0 0.00 0.00 0.00 75 1010.8
20260507024118 55 261 9.0 17.0 0.00 0.00 0.00 75 1009.9
20260507024033 55 276 10.0 17.0 0.00 0.00 0.00 75 1010.7
20260507023937 55 245 10.0 17.0 0.00 0.00 0.00 75 1010.7
20260507023839 55 263 11.0 17.0 0.00 0.00 0.00 75 1010.7
20260507023700 55 270 11.0 17.0 0.00 0.00 0.00 75 1010.7
20260507023634 55 279 10.0 17.0 0.00 0.00 0.00 75 1009.8
20260507023535 55 263 11.0 17.0 0.00 0.00 0.00 74 1010.7
20260507023439 55 267 11.0 17.0 0.00 0.00 0.00 74 1010.6
20260507023333 55 276 11.0 15.0 0.00 0.00 0.00 74 1010.6
20260507023213 55 268 10.0 17.0 0.00 0.00 0.00 74 1010.6
20260507023115 55 268 11.0 19.0 0.00 0.00 0.00 74 1010.6
20260507023015 56 253 12.0 19.0 0.00 0.00 0.00 74 1010.5
20260507022842 56 270 12.0 19.0 0.00 0.00 0.00 74 1010.5
20260507022734 56 263 12.0 19.0 0.00 0.00 0.00 74 1010.5
20260507022615 56 274 12.0 19.0 0.00 0.00 0.00 74 1010.5
20260507022517 56 268 13.0 19.0 0.00 0.00 0.00 74 1010.5
20260507022420 56 263 14.0 19.0 0.00 0.00 0.00 73 1010.5
20260507022311 56 260 15.0 19.0 0.00 0.00 0.00 73 1010.5
20260507022214 56 276 13.0 19.0 0.00 0.00 0.00 73 1010.6
20260507022120 56 278 13.0 17.0 0.00 0.00 0.00 73 1010.6
20260507022043 55 258 13.0 19.0 0.00 0.00 0.00 73 1009.7
20260507022008 56 266 13.0 19.0 0.00 0.00 0.00 73 1010.5
20260507021911 56 282 13.0 19.0 0.00 0.00 0.00 73 1010.6
20260507021814 56 264 13.0 20.0 0.00 0.00 0.00 73 1010.6
20260507021717 56 268 13.0 20.0 0.00 0.00 0.00 73 1010.5
20260507021643 55 293 13.0 20.0 0.00 0.00 0.00 73 1009.7
20260507021610 56 270 12.0 20.0 0.00 0.00 0.00 73 1010.6
20260507021436 56 268 12.0 20.0 0.00 0.00 0.00 73 1010.5
20260507021340 56 281 13.0 20.0 0.00 0.00 0.00 73 1010.5
20260507021232 56 264 14.0 20.0 0.00 0.00 0.00 73 1010.5
20260507021135 56 259 15.0 20.0 0.00 0.00 0.00 73 1010.5
20260507021036 56 246 13.0 20.0 0.00 0.00 0.00 73 1010.5
20260507020918 56 277 13.0 20.0 0.00 0.00 0.00 73 1010.4
20260507020816 56 257 12.0 23.0 0.00 0.00 0.00 73 1010.4
20260507020718 56 274 12.0 23.0 0.00 0.00 0.00 73 1010.4
20260507020622 56 263 13.0 23.0 0.00 0.00 0.00 73 1010.4
20260507020523 56 268 13.0 23.0 0.00 0.00 0.00 73 1010.4
20260507020355 56 271 14.0 23.0 0.00 0.00 0.00 73 1010.3
20260507020258 56 268 15.0 23.0 0.00 0.00 0.00 73 1010.3
20260507020200 56 263 16.0 23.0 0.00 0.00 0.00 73 1010.3
20260507020108 56 257 16.0 23.0 0.00 0.00 0.00 73 1010.3
20260507020055 56 274 16.0 23.0 0.00 0.00 0.00 73 1009.4
20260507015958 56 270 15.0 22.0 0.00 0.00 0.00 73 1010.3
20260507015840 56 276 13.0 20.0 0.00 0.00 0.00 73 1010.3
20260507015744 56 249 14.0 20.0 0.00 0.00 0.00 73 1010.3
20260507015638 56 267 14.0 22.0 0.00 0.00 0.00 73 1010.4
20260507015539 56 275 13.0 22.0 0.00 0.00 0.00 72 1010.4
20260507015425 56 271 13.0 22.0 0.00 0.00 0.00 72 1010.3
20260507015328 56 274 12.0 22.0 0.00 0.00 0.00 72 1010.3
20260507015220 56 273 13.0 22.0 0.00 0.00 0.00 72 1010.3
20260507015122 56 260 14.0 22.0 0.00 0.00 0.00 72 1010.3
20260507015021 56 268 15.0 22.0 0.00 0.00 0.00 72 1010.3
20260507014925 56 267 16.0 22.0 0.00 0.00 0.00 72 1010.3
20260507014820 56 251 17.0 23.0 0.00 0.00 0.00 72 1010.3
20260507014706 56 261 16.0 23.0 0.00 0.00 0.00 73 1010.3
20260507014607 56 271 16.0 23.0 0.00 0.00 0.00 73 1010.3
20260507014447 56 280 14.0 21.0 0.00 0.00 0.00 73 1010.3
20260507014340 56 270 14.0 21.0 0.00 0.00 0.00 73 1010.3
20260507014241 56 278 15.0 21.0 0.00 0.00 0.00 73 1010.2
20260507014145 56 277 13.0 21.0 0.00 0.00 0.00 73 1010.3
20260507014050 56 274 12.0 18.0 0.00 0.00 0.00 73 1010.3
20260507014022 56 278 12.0 18.0 0.00 0.00 0.00 73 1009.3
20260507013943 56 276 12.0 18.0 0.00 0.00 0.00 73 1010.2
20260507013847 56 287 11.0 18.0 0.00 0.00 0.00 73 1010.3
20260507013751 56 289 11.0 23.0 0.00 0.00 0.00 73 1010.2
20260507013656 56 259 11.0 23.0 0.00 0.00 0.00 73 1009.3
20260507013623 56 270 13.0 23.0 0.00 0.00 0.00 73 1010.2
20260507013524 56 274 15.0 23.0 0.00 0.00 0.00 73 1010.2
20260507013425 56 271 13.0 23.0 0.00 0.00 0.00 73 1010.2
20260507013154 56 261 13.0 23.0 0.00 0.00 0.00 73 1010.2
20260507013054 56 267 16.0 23.0 0.00 0.00 0.00 73 1010.1
20260507012956 56 266 17.0 23.0 0.00 0.00 0.00 73 1010.1
20260507012858 56 261 16.0 22.0 0.00 0.00 0.00 73 1010.1
20260507012751 56 259 16.0 22.0 0.00 0.00 0.00 73 1010.2
20260507012654 56 272 16.0 22.0 0.00 0.00 0.00 73 1010.1
20260507012558 56 261 16.0 22.0 0.00 0.00 0.00 73 1010.2
20260507012502 56 267 16.0 23.0 0.00 0.00 0.00 73 1010.2
20260507012356 56 268 17.0 23.0 0.00 0.00 0.00 73 1010.2
20260507012259 56 270 17.0 28.0 0.00 0.00 0.00 73 1010.1
20260507012158 56 259 16.0 28.0 0.00 0.00 0.00 72 1010.0
20260507012124 56 264 16.0 28.0 0.00 0.00 0.00 72 1009.1
20260507012050 56 258 17.0 28.0 0.00 0.00 0.00 72 1010.1
20260507011935 56 252 17.0 28.0 0.00 0.00 0.00 73 1010.0
20260507011838 57 258 17.0 28.0 0.00 0.00 0.00 73 1010.0
20260507011642 56 271 16.0 28.0 0.00 0.00 0.00 73 1009.0
20260507011605 57 249 18.0 28.0 0.00 0.00 0.00 72 1009.9
20260507011505 57 259 21.0 28.0 0.00 0.00 0.00 72 1010.0
20260507011408 56 279 21.0 29.0 0.00 0.00 0.00 73 1009.9
20260507011311 56 242 19.0 27.0 0.00 0.00 0.00 73 1009.8
20260507011206 56 253 19.0 27.0 0.00 0.00 0.00 73 1009.8
20260507011110 56 268 18.0 27.0 0.00 0.00 0.00 73 1009.8
20260507011010 56 270 17.0 24.0 0.00 0.00 0.00 73 1009.8
20260507010913 56 256 17.0 24.0 0.00 0.00 0.00 73 1009.8
20260507010806 57 257 17.0 28.0 0.00 0.00 0.00 73 1009.7
20260507010708 57 256 18.0 28.0 0.00 0.00 0.00 73 1009.7
20260507010611 57 276 18.0 28.0 0.00 0.00 0.00 73 1009.8
20260507010515 57 249 19.0 28.0 0.00 0.00 0.00 73 1009.8
20260507010409 57 265 16.0 28.0 0.00 0.00 0.00 73 1009.8
20260507010252 57 266 17.0 28.0 0.00 0.00 0.00 73 1009.8
20260507010112 57 251 20.0 31.0 0.00 0.00 0.00 73 1009.7
20260507010040 56 270 19.0 31.0 0.00 0.00 0.00 73 1008.7
20260507005835 57 259 22.0 31.0 0.00 0.00 0.00 73 1009.7
20260507005738 57 272 20.0 31.0 0.00 0.00 0.00 73 1009.7
20260507005645 57 247 19.0 31.0 0.00 0.00 0.00 73 1009.7
20260507005548 56 288 17.0 31.0 0.00 0.00 0.00 73 1008.7
20260507005515 57 257 20.0 31.0 0.00 0.00 0.00 73 1009.6
20260507005357 57 236 22.0 31.0 0.00 0.00 0.00 73 1009.7
20260507005259 57 247 22.0 31.0 0.00 0.00 0.00 73 1009.6
20260507005201 57 248 22.0 29.0 0.00 0.00 0.00 73 1009.7
20260507005106 56 268 21.0 29.0 0.00 0.00 0.00 73 1008.7
20260507005032 57 274 22.0 29.0 0.00 0.00 0.00 73 1009.7
20260507004939 57 266 22.0 29.0 0.00 0.00 0.00 73 1009.7
20260507004819 57 256 20.0 29.0 0.00 0.00 0.00 73 1009.7
20260507004723 57 273 21.0 27.0 0.00 0.00 0.00 73 1009.7
20260507004628 57 274 20.0 27.0 0.00 0.00 0.00 73 1009.8
20260507004539 56 282 19.0 27.0 0.00 0.00 0.00 73 1008.7
20260507004457 57 264 19.0 26.0 0.00 0.00 0.00 73 1009.8
20260507004340 57 280 19.0 26.0 0.00 0.00 0.00 73 1009.8
20260507004138 56 266 13.0 26.0 0.00 0.00 0.00 74 1008.8
20260507004107 57 273 15.0 26.0 0.00 0.00 0.00 74 1009.8
20260507004007 57 263 17.0 26.0 0.00 0.00 0.00 74 1009.8
20260507003910 57 271 17.0 26.0 0.00 0.00 0.00 74 1009.8
20260507003813 57 266 16.0 26.0 0.00 0.00 0.00 74 1009.8
20260507003706 57 274 18.0 26.0 0.00 0.00 0.00 74 1009.8
20260507003608 57 259 20.0 26.0 0.00 0.00 0.00 74 1009.8
20260507003508 57 259 18.0 25.0 0.00 0.00 0.00 74 1009.8
20260507003416 57 257 17.0 24.0 0.00 0.00 0.00 74 1009.8
20260507003311 57 232 15.0 26.0 0.00 0.00 0.00 74 1009.9
20260507003211 57 272 17.0 28.0 0.00 0.00 0.00 74 1009.9
20260507003051 57 281 17.0 28.0 0.00 0.00 0.00 74 1010.0
20260507002956 57 274 15.0 28.0 0.00 0.00 0.00 74 1010.0
20260507002848 57 270 15.0 28.0 0.00 0.00 0.00 74 1010.0
20260507002755 57 276 16.0 28.0 0.00 0.00 0.00 74 1009.9
20260507002659 57 270 16.0 28.0 0.00 0.00 0.00 74 1010.0
20260507002600 57 280 18.0 28.0 0.00 0.00 0.00 75 1010.0
20260507002536 57 248 17.0 28.0 0.00 0.00 0.00 74 1009.0
20260507002452 57 279 19.0 28.0 0.00 0.00 0.00 75 1009.9
20260507002355 57 273 17.0 28.0 0.00 0.00 0.00 75 1009.9
20260507002259 57 242 16.0 26.0 0.00 0.00 0.00 75 1009.9
20260507002130 57 226 16.0 26.0 0.00 0.00 0.00 75 1009.9
20260507002035 57 270 18.0 26.0 0.00 0.00 0.00 75 1009.9
20260507001917 57 257 20.0 26.0 0.00 0.00 0.00 75 1009.9
20260507001819 57 253 20.0 26.0 0.00 0.00 0.00 75 1009.8
20260507001712 57 229 18.0 25.0 0.00 0.00 0.00 75 1009.9
20260507001552 58 258 20.0 25.0 0.00 0.00 0.00 75 1009.9
20260507001434 58 257 17.0 25.0 0.00 0.00 0.00 75 1009.8
20260507001321 58 228 16.0 25.0 0.00 0.00 0.00 75 1009.8
20260507001214 58 271 17.0 26.0 0.00 0.00 0.00 75 1009.9
20260507001118 58 268 18.0 26.0 0.00 0.00 0.00 75 1009.8
20260507001019 58 253 17.0 26.0 0.00 0.00 0.00 75 1009.9
20260507000921 58 248 19.0 26.0 0.00 0.00 0.00 75 1009.9
20260507000733 58 262 20.0 26.0 0.00 0.00 0.00 75 1009.9
20260507000639 58 261 21.0 26.0 0.00 0.00 0.00 76 1009.9
20260507000539 58 215 19.0 26.0 0.00 0.00 0.00 76 1009.9
20260507000413 58 243 16.0 25.0 0.00 0.00 0.00 76 1009.9
20260507000315 58 244 16.0 25.0 0.00 0.00 0.00 76 1009.8
20260507000219 58 249 15.0 25.0 0.00 0.00 0.00 76 1009.7
20260507000120 58 234 17.0 25.0 0.00 0.00 0.00 76 1009.7
20260507000054 57 268 18.0 25.0 0.00 0.00 0.00 76 1008.7
20260507000012 58 278 19.0 25.0 0.00 0.00 0.00 76 1009.7
20260506235920 58 258 19.0 25.0 0.00 0.00 0.00 76 1009.7
20260506235823 58 235 18.0 24.0 0.00 0.00 0.00 76 1009.7
20260506235725 58 229 17.0 24.0 0.00 0.00 0.00 76 1009.7
20260506235658 57 248 17.0 24.0 0.00 0.00 0.00 76 1008.7
20260506235555 58 262 17.0 24.0 0.00 0.00 0.00 76 1009.6
20260506235458 58 257 17.0 24.0 0.00 0.00 0.00 76 1009.7
20260506235400 58 247 18.0 26.0 0.00 0.00 0.00 76 1009.7
20260506235307 58 265 19.0 26.0 0.00 0.00 0.00 76 1009.7
20260506235200 58 249 18.0 26.0 0.00 0.00 0.00 76 1009.7
20260506235103 58 261 15.0 26.0 0.00 0.00 0.00 76 1009.7
20260506235002 58 234 15.0 26.0 0.00 0.00 0.00 76 1009.7
20260506234906 58 248 15.0 26.0 0.00 0.00 0.00 76 1009.6
20260506234736 58 246 18.0 26.0 0.00 0.00 0.00 76 1009.7
20260506234639 58 271 20.0 26.0 0.00 0.00 0.00 76 1009.6
20260506234544 58 274 20.0 26.0 0.00 0.00 0.00 76 1009.6
20260506234510 57 262 19.0 27.0 0.00 0.00 0.00 76 1008.6
20260506234437 58 260 17.0 24.0 0.00 0.00 0.00 76 1009.5
20260506234320 58 271 16.0 28.0 0.00 0.00 0.00 76 1009.6
20260506234221 58 269 17.0 28.0 0.00 0.00 0.00 76 1009.6
20260506234123 58 261 16.0 28.0 0.00 0.00 0.00 76 1009.6
20260506234005 58 266 17.0 28.0 0.00 0.00 0.00 76 1009.6
20260506233902 58 258 19.0 28.0 0.00 0.00 0.00 76 1009.5
20260506233804 58 268 18.0 28.0 0.00 0.00 0.00 76 1009.4
20260506233706 58 253 19.0 28.0 0.00 0.00 0.00 76 1009.4
20260506233609 58 250 19.0 28.0 0.00 0.00 0.00 76 1009.4
20260506233545 58 266 18.0 28.0 0.00 0.00 0.00 76 1008.4
20260506233500 58 242 16.0 24.0 0.00 0.00 0.00 76 1009.4
20260506233402 58 191 17.0 24.0 0.00 0.00 0.00 75 1009.4
20260506233302 58 246 17.0 25.0 0.00 0.00 0.00 75 1009.4
20260506233156 58 270 15.0 27.0 0.00 0.00 0.00 75 1009.2
20260506233036 58 250 14.0 29.0 0.00 0.00 0.00 75 1009.2
20260506232917 58 254 14.0 29.0 0.00 0.00 0.00 75 1009.2
20260506232759 58 263 16.0 29.0 0.00 0.00 0.00 75 1009.2
20260506232652 58 270 19.0 32.0 0.00 0.00 0.00 75 1009.2
20260506232553 58 267 21.0 32.0 0.00 0.00 0.00 75 1009.2
20260506232500 58 255 21.0 32.0 0.00 0.00 0.00 75 1009.2
20260506232403 58 273 20.0 32.0 0.00 0.00 0.00 75 1009.1
20260506232255 58 238 19.0 32.0 0.00 0.00 0.00 75 1009.0
20260506232138 58 255 20.0 32.0 0.00 0.00 0.00 75 1009.1
20260506232018 58 250 23.0 32.0 0.00 0.00 0.00 75 1009.0
20260506231921 58 265 24.0 32.0 0.00 0.00 0.00 75 1009.0
20260506231814 58 262 23.0 30.0 0.00 0.00 0.00 75 1009.0
20260506231722 58 257 21.0 28.0 0.00 0.00 0.00 75 1009.0
20260506231602 58 259 20.0 28.0 0.00 0.00 0.00 75 1008.9
20260506231502 58 245 19.0 28.0 0.00 0.00 0.00 75 1008.9
20260506231355 58 259 19.0 28.0 0.00 0.00 0.00 75 1008.9
20260506231258 58 280 20.0 28.0 0.00 0.00 0.00 75 1008.8
20260506231200 58 273 21.0 28.0 0.00 0.00 0.00 75 1008.8
20260506231124 58 249 21.0 28.0 0.00 0.00 0.00 75 1007.8
20260506231036 58 251 20.0 28.0 0.00 0.00 0.00 75 1008.8
20260506230938 58 267 20.0 28.0 0.00 0.00 0.00 75 1008.8
20260506230820 58 268 21.0 29.0 0.00 0.00 0.00 75 1008.8
20260506230705 58 258 20.0 32.0 0.00 0.00 0.00 75 1008.8
20260506230639 58 238 19.0 32.0 0.00 0.00 0.00 75 1007.8
20260506230555 58 265 19.0 32.0 0.00 0.00 0.00 75 1008.8
20260506230457 58 257 19.0 32.0 0.00 0.00 0.00 75 1008.8
20260506230402 58 272 20.0 32.0 0.00 0.00 0.00 75 1008.8
20260506230255 58 271 20.0 32.0 0.00 0.00 0.00 75 1008.7
20260506230158 58 265 18.0 32.0 0.00 0.00 0.00 75 1008.8
20260506230058 58 253 19.0 32.0 0.00 0.00 0.00 76 1008.7
20260506230000 58 263 20.0 32.0 0.00 0.00 0.00 76 1008.7
20260506225905 58 268 21.0 32.0 0.00 0.00 0.00 76 1008.7
20260506225756 58 233 19.0 32.0 0.00 0.00 0.00 76 1008.7
20260506225703 58 234 15.0 29.0 0.00 0.00 0.00 76 1008.7
20260506225604 59 243 17.0 29.0 0.00 0.00 0.00 76 1008.7
20260506225425 59 247 19.0 30.0 0.00 0.00 0.00 76 1008.7
20260506225318 59 257 21.0 33.0 0.00 0.00 0.00 76 1008.7
20260506225221 59 253 22.0 33.0 0.00 0.00 0.00 76 1008.7
20260506225058 59 270 23.0 33.0 0.00 0.00 0.00 76 1008.7
20260506225027 58 268 23.0 33.0 0.00 0.00 0.00 76 1007.7
20260506224936 59 250 22.0 33.0 0.00 0.00 0.00 76 1008.7
20260506224837 59 261 22.0 33.0 0.00 0.00 0.00 76 1008.6
20260506224741 59 280 24.0 33.0 0.00 0.00 0.00 76 1008.7
20260506224648 58 261 24.0 33.0 0.00 0.00 0.00 76 1007.6
20260506224614 59 276 26.0 33.0 0.00 0.00 0.00 76 1008.6
20260506224515 59 253 27.0 33.0 0.00 0.00 0.00 76 1008.6
20260506224418 59 247 25.0 33.0 0.00 0.00 0.00 75 1008.5
20260506224324 59 261 23.0 32.0 0.00 0.00 0.00 75 1008.6
20260506224155 59 249 23.0 32.0 0.00 0.00 0.00 75 1008.5
20260506224057 59 260 24.0 32.0 0.00 0.00 0.00 75 1008.6
20260506224000 59 268 23.0 33.0 0.00 0.00 0.00 75 1008.6
20260506223904 59 284 23.0 33.0 0.00 0.00 0.00 75 1008.6
20260506223757 59 243 24.0 33.0 0.00 0.00 0.00 75 1008.7
20260506223700 59 257 24.0 33.0 0.00 0.00 0.00 75 1008.7
20260506223607 59 265 23.0 33.0 0.00 0.00 0.00 75 1008.6
20260506223447 60 245 23.0 33.0 0.00 0.00 0.00 76 1008.6
20260506223340 60 250 22.0 30.0 0.00 0.00 0.00 76 1008.5
20260506223242 60 265 22.0 30.0 0.00 0.00 0.00 76 1008.5
20260506223145 60 251 23.0 30.0 0.00 0.00 0.00 75 1008.6
20260506223025 60 249 24.0 30.0 0.00 0.00 0.00 75 1008.5
20260506223003 59 268 23.0 30.0 0.00 0.00 0.00 75 1007.5
20260506222922 60 270 24.0 30.0 0.00 0.00 0.00 75 1008.4
20260506222825 60 275 25.0 30.0 0.00 0.00 0.00 75 1008.5
20260506222726 60 251 22.0 30.0 0.00 0.00 0.00 75 1008.4
20260506222651 59 253 25.0 31.0 0.00 0.00 0.00 75 1007.4
20260506222619 60 266 24.0 30.0 0.00 0.00 0.00 75 1008.4
20260506222517 60 261 24.0 29.0 0.00 0.00 0.00 75 1008.4
20260506222421 60 257 22.0 30.0 0.00 0.00 0.00 75 1008.5
20260506222306 60 212 21.0 30.0 0.00 0.00 0.00 75 1008.4
20260506222157 60 249 22.0 30.0 0.00 0.00 0.00 76 1008.3
20260506222057 60 263 21.0 30.0 0.00 0.00 0.00 76 1008.4
20260506222000 60 259 20.0 30.0 0.00 0.00 0.00 76 1008.3
20260506221901 60 248 20.0 30.0 0.00 0.00 0.00 76 1008.3
20260506221755 60 255 21.0 30.0 0.00 0.00 0.00 76 1008.3
20260506221658 61 271 23.0 30.0 0.00 0.00 0.00 75 1008.2
20260506221607 61 272 22.0 30.0 0.00 0.00 0.00 75 1008.2
20260506221507 61 273 22.0 30.0 0.00 0.00 0.00 76 1008.2
20260506221340 61 251 22.0 30.0 0.00 0.00 0.00 76 1008.2
20260506221242 61 248 22.0 30.0 0.00 0.00 0.00 76 1008.2
20260506221145 61 265 22.0 30.0 0.00 0.00 0.00 76 1008.2
20260506221024 61 256 19.0 31.0 0.00 0.00 0.00 77 1008.2
20260506220915 61 276 18.0 31.0 0.00 0.00 0.00 77 1008.1
20260506220801 61 247 19.0 31.0 0.00 0.00 0.00 77 1008.1
20260506220703 61 261 21.0 31.0 0.00 0.00 0.00 77 1008.1
20260506220605 61 271 24.0 31.0 0.00 0.00 0.00 77 1008.1
20260506220536 60 259 22.0 31.0 0.00 0.00 0.00 77 1007.1
20260506220457 61 273 20.0 29.0 0.00 0.00 0.00 77 1008.2
20260506220400 61 274 15.0 29.0 0.00 0.00 0.00 77 1008.2
20260506220303 61 275 16.0 30.0 0.00 0.00 0.00 77 1008.1
20260506220148 61 255 19.0 30.0 0.00 0.00 0.00 77 1008.0
20260506220121 60 261 20.0 30.0 0.00 0.00 0.00 77 1007.0
20260506220040 61 280 21.0 30.0 0.00 0.00 0.00 77 1007.9
20260506215943 61 255 22.0 30.0 0.00 0.00 0.00 77 1007.9
20260506215825 61 264 21.0 30.0 0.00 0.00 0.00 77 1007.8
20260506215728 61 246 20.0 30.0 0.00 0.00 0.00 77 1007.9
20260506215623 61 239 22.0 30.0 0.00 0.00 0.00 77 1007.9
20260506215503 61 251 24.0 30.0 0.00 0.00 0.00 76 1007.9
20260506215409 61 251 24.0 30.0 0.00 0.00 0.00 76 1007.7
20260506215311 61 261 23.0 29.0 0.00 0.00 0.00 76 1007.7
20260506215202 61 236 23.0 32.0 0.00 0.00 0.00 76 1007.7
20260506215102 61 264 19.0 32.0 0.00 0.00 0.00 75 1007.6
20260506214944 61 269 19.0 33.0 0.00 0.00 0.00 75 1007.7
20260506214846 61 253 19.0 33.0 0.00 0.00 0.00 75 1007.6
20260506214744 61 257 18.0 33.0 0.00 0.00 0.00 75 1007.6
20260506214647 61 259 19.0 33.0 0.00 0.00 0.00 75 1007.5
20260506214526 61 274 22.0 33.0 0.00 0.00 0.00 75 1007.6
20260506214310 61 262 25.0 33.0 0.00 0.00 0.00 74 1007.4
20260506214200 61 247 24.0 33.0 0.00 0.00 0.00 74 1007.3
20260506214059 61 228 20.0 33.0 0.00 0.00 0.00 73 1007.3
20260506213943 61 253 23.0 33.0 0.00 0.00 0.00 73 1007.2
20260506213825 61 248 24.0 33.0 0.00 0.00 0.00 72 1007.2
20260506213708 61 249 24.0 33.0 0.00 0.00 0.00 72 1007.2
20260506213621 61 261 22.0 30.0 0.00 0.00 0.00 72 1006.2
20260506213538 61 247 21.0 31.0 0.00 0.00 0.00 72 1007.2
20260506213440 61 259 20.0 31.0 0.00 0.00 0.00 72 1007.1
20260506213322 61 261 22.0 31.0 0.00 0.00 0.00 71 1007.2
20260506213223 61 232 23.0 31.0 0.00 0.00 0.00 71 1007.1
20260506213158 61 261 23.0 31.0 0.00 0.00 0.00 71 1006.1
20260506213049 61 263 25.0 31.0 0.00 0.00 0.00 71 1007.0
20260506212912 61 253 26.0 31.0 0.00 0.00 0.00 71 1006.9
20260506212815 62 248 24.0 31.0 0.00 0.00 0.00 71 1007.0
20260506212654 62 259 23.0 29.0 0.00 0.00 0.00 70 1006.9
20260506212626 61 265 22.0 29.0 0.00 0.00 0.00 70 1005.9
20260506212547 62 238 22.0 28.0 0.00 0.00 0.00 70 1006.8
20260506212435 62 253 22.0 32.0 0.00 0.00 0.00 70 1006.8
20260506212338 62 261 22.0 32.0 0.00 0.00 0.00 70 1006.8
20260506212209 62 250 22.0 32.0 0.00 0.00 0.00 70 1006.8
20260506212111 62 214 23.0 32.0 0.00 0.00 0.00 70 1006.8
20260506212013 62 242 21.0 32.0 0.00 0.00 0.00 70 1006.7
20260506211738 62 261 26.0 32.0 0.00 0.00 0.00 70 1006.6
20260506211643 62 230 25.0 33.0 0.00 0.00 0.00 69 1006.6
20260506211544 62 270 22.0 31.0 0.00 0.00 0.00 69 1006.6
20260506211521 61 238 21.0 31.0 0.00 0.00 0.00 69 1005.7
20260506211438 62 259 21.0 31.0 0.00 0.00 0.00 69 1006.6
20260506211319 62 250 24.0 31.0 0.00 0.00 0.00 69 1006.6
20260506211200 62 247 22.0 31.0 0.00 0.00 0.00 69 1006.6
20260506211059 62 251 20.0 31.0 0.00 0.00 0.00 69 1006.6
20260506211034 61 236 21.0 31.0 0.00 0.00 0.00 69 1005.6
20260506210956 62 247 23.0 31.0 0.00 0.00 0.00 69 1006.5
20260506210838 62 240 23.0 30.0 0.00 0.00 0.00 69 1006.5
20260506210740 62 251 22.0 30.0 0.00 0.00 0.00 68 1006.5
20260506210643 62 275 21.0 30.0 0.00 0.00 0.00 68 1006.4
20260506210554 62 232 20.0 30.0 0.00 0.00 0.00 68 1005.5
20260506210515 62 265 20.0 30.0 0.00 0.00 0.00 68 1006.5
20260506210417 62 253 20.0 30.0 0.00 0.00 0.00 68 1006.5
20260506210155 62 245 22.0 30.0 0.00 0.00 0.00 68 1005.4
20260506210003 62 255 18.0 29.0 0.00 0.00 0.00 68 1006.4
20260506205905 62 253 19.0 31.0 0.00 0.00 0.00 68 1006.3
20260506205747 62 253 19.0 31.0 0.00 0.00 0.00 68 1006.3
20260506205641 62 292 20.0 32.0 0.00 0.00 0.00 68 1006.3
20260506205540 62 236 22.0 32.0 0.00 0.00 0.00 67 1006.2
20260506205444 62 253 22.0 32.0 0.00 0.00 0.00 67 1006.3
20260506205352 63 271 21.0 32.0 0.00 0.00 0.00 67 1006.3
20260506205244 63 247 25.0 32.0 0.00 0.00 0.00 67 1006.2
20260506205126 63 245 22.0 32.0 0.00 0.00 0.00 67 1006.2
20260506205027 63 245 22.0 32.0 0.00 0.00 0.00 67 1006.2
20260506204930 63 232 21.0 32.0 0.00 0.00 0.00 67 1006.2
20260506204822 63 252 19.0 28.0 0.00 0.00 0.00 67 1006.2
20260506204729 63 213 18.0 28.0 0.00 0.00 0.00 67 1006.2
20260506204633 63 253 18.0 28.0 0.00 0.00 0.00 66 1006.2
20260506204534 62 252 19.0 28.0 0.00 0.00 0.00 66 1005.1
20260506204313 63 232 20.0 27.0 0.00 0.00 0.00 66 1006.1
20260506204215 63 261 20.0 26.0 0.00 0.00 0.00 66 1006.1
20260506204117 63 254 20.0 26.0 0.00 0.00 0.00 65 1006.0
20260506204028 63 243 19.0 24.0 0.00 0.00 0.00 65 1005.0
20260506203949 64 265 19.0 24.0 0.00 0.00 0.00 65 1006.0
20260506203813 64 255 18.0 28.0 0.00 0.00 0.00 64 1006.0
20260506203715 64 213 16.0 28.0 0.00 0.00 0.00 64 1006.0
20260506203615 64 249 17.0 32.0 0.00 0.00 0.00 63 1006.0
20260506203525 64 216 16.0 32.0 0.00 0.00 0.00 63 1005.0
20260506203449 64 250 17.0 32.0 0.00 0.00 0.00 63 1006.0
20260506203331 64 240 15.0 32.0 0.00 0.00 0.00 62 1006.1
20260506203233 65 250 16.0 32.0 0.00 0.00 0.00 62 1006.0
20260506203152 64 236 17.0 32.0 0.00 0.00 0.00 62 1004.9
20260506203108 65 253 19.0 32.0 0.00 0.00 0.00 62 1005.9
20260506203009 65 265 22.0 32.0 0.00 0.00 0.00 61 1005.9
20260506202911 65 272 24.0 32.0 0.00 0.00 0.00 61 1005.9
20260506202804 65 264 22.0 32.0 0.00 0.00 0.00 60 1005.8
20260506202706 66 259 24.0 31.0 0.00 0.00 0.00 58 1005.8
20260506202546 66 268 22.0 31.0 0.00 0.00 0.00 58 1005.7
20260506202427 67 259 23.0 31.0 0.00 0.00 0.00 57 1005.7
20260506202324 67 264 25.0 31.0 0.00 0.00 0.00 56 1005.6
20260506202226 67 274 22.0 30.0 0.00 0.00 0.00 53 1005.5
20260506202127 68 268 16.0 28.0 0.00 0.00 0.00 53 1005.5
20260506202007 68 268 16.0 22.0 0.00 0.00 0.00 52 1005.5
20260506201859 68 255 16.0 22.0 0.00 0.00 0.00 52 1005.3
20260506201801 68 270 15.0 22.0 0.00 0.00 0.00 52 1005.3
20260506201648 68 261 16.0 22.0 0.00 0.00 0.00 52 1005.3
20260506201549 68 280 16.0 22.0 0.00 0.00 0.00 51 1005.3
20260506201506 68 270 15.0 22.0 0.00 0.00 0.00 51 1004.3
20260506201422 68 270 16.0 21.0 0.00 0.00 0.00 51 1005.3
20260506201304 68 249 14.0 21.0 0.00 0.00 0.00 51 1005.3
20260506201205 68 272 10.0 16.0 0.00 0.00 0.00 51 1005.3
20260506201110 68 254 10.0 13.0 0.00 0.00 0.00 52 1005.3
20260506201041 68 269 9.0 12.0 0.00 0.00 0.00 52 1004.3
20260506201001 68 280 9.0 13.0 0.00 0.00 0.00 52 1005.2
20260506200905 68 273 7.0 12.0 0.00 0.00 0.00 51 1005.1
20260506200747 68 255 6.0 12.0 0.00 0.00 0.00 52 1005.0
20260506200648 68 236 7.0 12.0 0.00 0.00 0.00 51 1005.0
20260506200614 68 236 6.0 12.0 0.00 0.00 0.00 51 1004.0
20260506200539 68 250 5.0 12.0 0.00 0.00 0.00 52 1004.9
20260506200441 68 228 5.0 12.0 0.00 0.00 0.00 52 1004.9
20260506200344 68 231 8.0 12.0 0.00 0.00 0.00 51 1004.9
20260506200229 68 226 9.0 13.0 0.00 0.00 0.00 51 1004.8
20260506200155 68 243 7.0 12.0 0.00 0.00 0.00 52 1003.8
20260506200122 68 220 7.0 10.0 0.00 0.00 0.00 52 1004.8
20260506200022 68 239 5.0 10.0 0.00 0.00 0.00 52 1004.7
20260506195903 69 230 6.0 10.0 0.00 0.00 0.00 52 1004.7
20260506195745 69 228 6.0 10.0 0.00 0.00 0.00 52 1004.7
20260506195637 69 226 7.0 10.0 0.00 0.00 0.00 52 1004.7
20260506195537 69 212 7.0 10.0 0.00 0.00 0.00 51 1004.6
20260506195423 69 224 6.0 10.0 0.00 0.00 0.00 51 1004.6
20260506195326 69 228 6.0 10.0 0.00 0.00 0.00 51 1004.6
20260506195217 69 207 7.0 10.0 0.00 0.00 0.00 51 1004.6
20260506195120 69 211 6.0 10.0 0.00 0.00 0.00 51 1004.6
20260506195021 69 207 7.0 12.0 0.00 0.00 0.00 51 1004.5
20260506194924 69 220 7.0 12.0 0.00 0.00 0.00 51 1004.5
20260506194822 69 233 7.0 12.0 0.00 0.00 0.00 51 1004.5
20260506194724 69 221 7.0 12.0 0.00 0.00 0.00 51 1004.5
20260506194629 69 218 7.0 12.0 0.00 0.00 0.00 51 1004.5
20260506194529 69 227 7.0 12.0 0.00 0.00 0.00 51 1004.5
20260506194400 69 236 8.0 12.0 0.00 0.00 0.00 51 1004.5
20260506194303 69 237 8.0 12.0 0.00 0.00 0.00 51 1004.5
20260506194159 69 225 8.0 12.0 0.00 0.00 0.00 51 1004.5
20260506194107 69 202 8.0 11.0 0.00 0.00 0.00 51 1004.5
20260506194009 69 221 8.0 12.0 0.00 0.00 0.00 51 1004.5
20260506193903 69 191 8.0 12.0 0.00 0.00 0.00 51 1004.5
20260506193805 69 213 8.0 12.0 0.00 0.00 0.00 51 1004.5
20260506193608 69 226 8.0 12.0 0.00 0.00 0.00 51 1003.5
20260506193528 69 212 8.0 14.0 0.00 0.00 0.00 50 1004.6
20260506193430 69 224 8.0 14.0 0.00 0.00 0.00 50 1004.6
20260506193315 69 236 8.0 14.0 0.00 0.00 0.00 50 1004.6
20260506193217 69 216 7.0 14.0 0.00 0.00 0.00 50 1004.6
20260506193145 69 238 5.0 14.0 0.00 0.00 0.00 50 1003.4
20260506193111 69 220 5.0 14.0 0.00 0.00 0.00 50 1004.5
20260506193011 69 218 6.0 14.0 0.00 0.00 0.00 50 1004.5
20260506192915 69 224 7.0 14.0 0.00 0.00 0.00 50 1004.4
20260506192818 69 216 9.0 14.0 0.00 0.00 0.00 50 1004.4
20260506192716 69 267 9.0 14.0 0.00 0.00 0.00 50 1004.4
20260506192619 69 217 8.0 12.0 0.00 0.00 0.00 50 1004.4
20260506192458 69 216 5.0 12.0 0.00 0.00 0.00 50 1004.3
20260506192333 69 213 7.0 12.0 0.00 0.00 0.00 49 1004.4
20260506192235 69 222 8.0 12.0 0.00 0.00 0.00 49 1004.3
20260506192136 69 226 8.0 14.0 0.00 0.00 0.00 49 1004.2
20260506192105 69 241 8.0 14.0 0.00 0.00 0.00 49 1003.2
20260506192031 69 227 10.0 14.0 0.00 0.00 0.00 49 1004.2
20260506191934 69 219 9.0 12.0 0.00 0.00 0.00 49 1004.2
20260506191835 69 199 8.0 14.0 0.00 0.00 0.00 49 1004.2
20260506191738 70 205 8.0 14.0 0.00 0.00 0.00 49 1004.2
20260506191632 70 211 7.0 16.0 0.00 0.00 0.00 49 1004.2
20260506191511 70 225 9.0 16.0 0.00 0.00 0.00 49 1004.2
20260506191414 70 236 9.0 16.0 0.00 0.00 0.00 49 1004.2
20260506191319 70 210 8.0 16.0 0.00 0.00 0.00 48 1004.2
20260506191211 70 235 8.0 16.0 0.00 0.00 0.00 48 1004.2
20260506191114 69 228 10.0 16.0 0.00 0.00 0.00 48 1004.1
20260506191014 69 217 11.0 16.0 0.00 0.00 0.00 49 1004.1
20260506190916 69 255 10.0 16.0 0.00 0.00 0.00 48 1004.0
20260506190810 69 253 9.0 16.0 0.00 0.00 0.00 49 1004.0
20260506190717 69 211 7.0 16.0 0.00 0.00 0.00 49 1004.0
20260506190618 69 263 7.0 16.0 0.00 0.00 0.00 49 1003.9
20260506190501 69 228 8.0 16.0 0.00 0.00 0.00 48 1003.9
20260506190353 69 249 9.0 14.0 0.00 0.00 0.00 49 1003.9
20260506190255 69 240 8.0 14.0 0.00 0.00 0.00 49 1003.9
20260506190157 69 234 7.0 12.0 0.00 0.00 0.00 49 1003.8
20260506190116 69 250 5.0 11.0 0.00 0.00 0.00 49 1002.7
20260506190034 69 259 5.0 11.0 0.00 0.00 0.00 49 1003.7
20260506185937 69 238 5.0 11.0 0.00 0.00 0.00 49 1003.7
20260506185840 69 226 5.0 11.0 0.00 0.00 0.00 49 1003.7
20260506185743 69 236 7.0 11.0 0.00 0.00 0.00 49 1003.7
20260506185637 69 257 5.0 11.0 0.00 0.00 0.00 49 1003.8
20260506185517 69 224 5.0 11.0 0.00 0.00 0.00 49 1003.7
20260506185420 69 201 6.0 12.0 0.00 0.00 0.00 49 1003.7
20260506185326 69 245 6.0 12.0 0.00 0.00 0.00 49 1003.7
20260506185218 69 225 7.0 12.0 0.00 0.00 0.00 49 1003.7
20260506185121 69 239 8.0 12.0 0.00 0.00 0.00 49 1003.7
20260506185022 69 246 6.0 12.0 0.00 0.00 0.00 49 1003.7
20260506184916 69 222 6.0 12.0 0.00 0.00 0.00 49 1003.6
20260506184819 69 220 6.0 12.0 0.00 0.00 0.00 49 1003.6
20260506184726 69 222 8.0 12.0 0.00 0.00 0.00 49 1003.6
20260506184535 69 225 6.0 14.0 0.00 0.00 0.00 49 1002.5
20260506184450 69 229 6.0 14.0 0.00 0.00 0.00 50 1003.5
20260506184354 69 229 5.0 14.0 0.00 0.00 0.00 49 1003.5
20260506184257 69 216 6.0 14.0 0.00 0.00 0.00 50 1003.5
20260506184157 69 196 6.0 14.0 0.00 0.00 0.00 49 1003.5
20260506184127 69 220 5.0 14.0 0.00 0.00 0.00 50 1002.4
20260506184049 69 218 6.0 14.0 0.00 0.00 0.00 50 1003.4
20260506183937 69 218 8.0 14.0 0.00 0.00 0.00 49 1003.5
20260506183840 69 237 9.0 14.0 0.00 0.00 0.00 49 1003.5
20260506183733 69 236 8.0 14.0 0.00 0.00 0.00 49 1003.5
20260506183635 69 243 7.0 12.0 0.00 0.00 0.00 49 1003.5
20260506183536 69 209 6.0 11.0 0.00 0.00 0.00 49 1003.5
20260506183503 69 222 5.0 9.0 0.00 0.00 0.00 49 1002.4
20260506183428 69 209 4.0 8.0 0.00 0.00 0.00 49 1003.5
20260506183314 70 195 4.0 8.0 0.00 0.00 0.00 49 1003.5
20260506183215 70 219 4.0 6.0 0.00 0.00 0.00 49 1003.5
20260506183119 70 208 4.0 6.0 0.00 0.00 0.00 48 1003.5
20260506183021 70 219 3.0 6.0 0.00 0.00 0.00 49 1003.5
20260506182747 70 191 3.0 6.0 0.00 0.00 0.00 49 1003.4
20260506182649 70 211 3.0 6.0 0.00 0.00 0.00 49 1003.4
20260506182553 70 213 4.0 6.0 0.00 0.00 0.00 48 1003.4
20260506182532 70 217 3.0 6.0 0.00 0.00 0.00 48 1002.3
20260506182447 71 226 3.0 5.0 0.00 0.00 0.00 48 1003.4
20260506182331 71 227 2.0 5.0 0.00 0.00 0.00 47 1003.4
20260506182221 71 209 1.0 4.0 0.00 0.00 0.00 47 1003.4
20260506182100 71 209 1.0 4.0 0.00 0.00 0.00 47 1003.4
20260506181941 71 209 0.0 4.0 0.00 0.00 0.00 47 1003.4
20260506181849 71 209 0.0 4.0 0.00 0.00 0.00 47 1003.4
20260506181743 71 209 1.0 4.0 0.00 0.00 0.00 47 1003.3
20260506181624 71 209 2.0 4.0 0.00 0.00 0.00 47 1003.4
20260506181524 71 209 2.0 3.0 0.00 0.00 0.00 47 1003.5
20260506181428 71 209 1.0 3.0 0.00 0.00 0.00 47 1003.4
20260506181322 71 209 1.0 3.0 0.00 0.00 0.00 47 1003.4
20260506181036 71 209 1.0 4.0 0.00 0.00 0.00 46 1003.3
20260506180939 71 209 1.0 4.0 0.00 0.00 0.00 46 1003.3
20260506180833 71 209 1.0 4.0 0.00 0.00 0.00 46 1003.3
20260506180734 72 209 1.0 5.0 0.00 0.00 0.00 46 1003.3
20260506180637 72 209 2.0 5.0 0.00 0.00 0.00 46 1003.2
20260506180538 72 209 3.0 6.0 0.00 0.00 0.00 46 1003.3
20260506180513 71 209 2.0 6.0 0.00 0.00 0.00 46 1002.2
20260506180431 72 216 3.0 6.0 0.00 0.00 0.00 46 1003.2
20260506180318 72 217 1.0 6.0 0.00 0.00 0.00 46 1003.2
20260506180219 72 193 1.0 6.0 0.00 0.00 0.00 46 1003.2
20260506180122 72 188 1.0 6.0 0.00 0.00 0.00 46 1003.2
20260506180053 71 188 1.0 6.0 0.00 0.00 0.00 46 1002.0
20260506180014 72 188 2.0 6.0 0.00 0.00 0.00 45 1003.1
20260506175918 72 195 3.0 10.0 0.00 0.00 0.00 45 1003.2
20260506175818 72 197 2.0 10.0 0.00 0.00 0.00 45 1003.1
20260506175725 72 213 2.0 10.0 0.00 0.00 0.00 45 1003.1
20260506175656 72 198 2.0 10.0 0.00 0.00 0.00 45 1002.0
20260506175616 72 189 4.0 10.0 0.00 0.00 0.00 45 1003.2
20260506175458 72 193 4.0 10.0 0.00 0.00 0.00 45 1003.1
20260506175338 72 199 4.0 10.0 0.00 0.00 0.00 45 1003.2
20260506175239 72 205 5.0 10.0 0.00 0.00 0.00 45 1003.2
20260506175155 72 196 5.0 10.0 0.00 0.00 0.00 44 1002.0
20260506175110 72 190 5.0 10.0 0.00 0.00 0.00 45 1003.1
20260506175011 72 230 4.0 9.0 0.00 0.00 0.00 45 1003.1
20260506174918 72 207 4.0 9.0 0.00 0.00 0.00 45 1003.1
20260506174820 72 181 4.0 9.0 0.00 0.00 0.00 45 1003.2
20260506174714 72 187 4.0 7.0 0.00 0.00 0.00 45 1003.1